Wetterdaten: Freitag, 05.08.2016
Datum Zeit Temp. Aussen Temp. o. S. +5cm Feuchte Auss BlattFeu 1 Luftdruck Regen Sonnenschein Regendauer Solar Windben Empfang
05.08.2016 00:00 16,4 C 15,6 C 13,9 C 89 % 1 lf 1012,5 hPa 0,0 l/m 0 min 0 min 5 W/m 4,2 km/h (1 Bft) 95,74 %
05.08.2016 00:02 16,3 C 15,6 C 13,9 C 89 % 1 lf 1012,5 hPa 0,0 l/m 0 min 0 min 5 W/m 6,3 km/h (2 Bft) 92,86 %
05.08.2016 00:06 16,3 C 15,6 C 13,9 C 89 % 1 lf 1012,4 hPa 0,0 l/m 0 min 0 min 5 W/m 12,6 km/h (3 Bft) 93,62 %
05.08.2016 00:08 16,3 C 15,6 C 13,9 C 89 % 1 lf 1012,4 hPa 0,0 l/m 0 min 0 min 5 W/m 10,5 km/h (2 Bft) 93,62 %
05.08.2016 00:10 16,3 C 15,6 C 13,9 C 89 % 1 lf 1012,5 hPa 0,0 l/m 0 min 0 min 5 W/m 8,4 km/h (2 Bft) 97,87 %
05.08.2016 00:12 16,2 C 15,6 C 13,9 C 89 % 1 lf 1012,5 hPa 0,0 l/m 0 min 0 min 5 W/m 10,5 km/h (2 Bft) 95,74 %
05.08.2016 00:14 16,2 C 15,6 C 13,9 C 89 % 1 lf 1012,4 hPa 0,0 l/m 0 min 0 min 5 W/m 8,4 km/h (2 Bft) 95,65 %
05.08.2016 00:16 16,2 C 15,6 C 13,9 C 89 % 1 lf 1012,5 hPa 0,0 l/m 0 min 0 min 5 W/m 8,4 km/h (2 Bft) 93,62 %
05.08.2016 00:18 16,2 C 15,6 C 13,9 C 89 % 1 lf 1012,5 hPa 0,0 l/m 0 min 0 min 5 W/m 6,3 km/h (2 Bft) 97,87 %
05.08.2016 00:20 16,2 C 15,6 C 13,9 C 89 % 1 lf 1012,5 hPa 0,0 l/m 0 min 0 min 5 W/m 8,4 km/h (2 Bft) 97,87 %
05.08.2016 00:22 16,1 C 15,6 C 13,9 C 89 % 1 lf 1012,5 hPa 0,0 l/m 0 min 0 min 5 W/m 8,4 km/h (2 Bft) 97,87 %
05.08.2016 00:24 16,1 C 15,6 C 13,9 C 89 % 1 lf 1012,5 hPa 0,0 l/m 0 min 0 min 5 W/m 10,5 km/h (2 Bft) 95,74 %
05.08.2016 00:26 16,1 C 15,6 C 13,9 C 90 % 1 lf 1012,5 hPa 0,0 l/m 0 min 0 min 5 W/m 6,3 km/h (2 Bft) 97,83 %
05.08.2016 00:28 16,1 C 15,6 C 13,9 C 90 % 1 lf 1012,5 hPa 0,0 l/m 0 min 0 min 5 W/m 8,4 km/h (2 Bft) 93,62 %
05.08.2016 00:30 16,0 C 15,6 C 13,9 C 90 % 1 lf 1012,5 hPa 0,0 l/m 0 min 0 min 5 W/m 8,4 km/h (2 Bft) 95,74 %
05.08.2016 00:32 16,0 C 15,6 C 13,9 C 90 % 1 lf 1012,5 hPa 0,0 l/m 0 min 0 min 5 W/m 8,4 km/h (2 Bft) 95,74 %
05.08.2016 00:34 16,0 C 15,6 C 13,9 C 90 % 1 lf 1012,5 hPa 0,0 l/m 0 min 0 min 5 W/m 8,4 km/h (2 Bft) 95,74 %
05.08.2016 00:36 15,9 C 15,6 C 13,9 C 90 % 1 lf 1012,5 hPa 0,0 l/m 0 min 0 min 5 W/m 8,4 km/h (2 Bft) 95,74 %
05.08.2016 00:38 15,9 C 15,6 C 13,9 C 90 % 1 lf 1012,5 hPa 0,0 l/m 0 min 0 min 5 W/m 8,4 km/h (2 Bft) 93,48 %
05.08.2016 00:40 15,9 C 15,0 C 13,9 C 90 % 1 lf 1012,5 hPa 0,0 l/m 0 min 0 min 5 W/m 6,3 km/h (2 Bft) 95,74 %
05.08.2016 00:42 15,9 C 15,0 C 13,9 C 90 % 1 lf 1012,5 hPa 0,0 l/m 0 min 0 min 5 W/m 8,4 km/h (2 Bft) 95,74 %
05.08.2016 00:44 15,9 C 15,6 C 13,9 C 90 % 1 lf 1012,4 hPa 0,0 l/m 0 min 0 min 5 W/m 8,4 km/h (2 Bft) 93,62 %
05.08.2016 00:46 15,9 C 15,0 C 13,9 C 90 % 1 lf 1012,4 hPa 0,0 l/m 0 min 0 min 5 W/m 8,4 km/h (2 Bft) 93,62 %
05.08.2016 00:48 15,8 C 15,6 C 13,9 C 90 % 1 lf 1012,4 hPa 0,0 l/m 0 min 0 min 5 W/m 12,6 km/h (3 Bft) 93,48 %
05.08.2016 00:50 15,8 C 15,6 C 13,9 C 90 % 1 lf 1012,4 hPa 0,0 l/m 0 min 0 min 5 W/m 10,5 km/h (2 Bft) 97,87 %
05.08.2016 00:52 15,8 C 15,6 C 13,9 C 91 % 1 lf 1012,5 hPa 0,0 l/m 0 min 0 min 5 W/m 8,4 km/h (2 Bft) 97,87 %
05.08.2016 00:54 15,8 C 15,6 C 13,9 C 91 % 1 lf 1012,5 hPa 0,0 l/m 0 min 0 min 5 W/m 10,5 km/h (2 Bft) 91,49 %
05.08.2016 00:56 15,8 C 15,6 C 13,9 C 91 % 1 lf 1012,5 hPa 0,0 l/m 0 min 0 min 5 W/m 8,4 km/h (2 Bft) 95,74 %
05.08.2016 00:58 15,8 C 15,0 C 13,9 C 91 % 1 lf 1012,5 hPa 0,0 l/m 0 min 0 min 5 W/m 8,4 km/h (2 Bft) 95,74 %
05.08.2016 01:00 15,8 C 15,6 C 13,9 C 91 % 1 lf 1012,5 hPa 0,0 l/m 0 min 0 min 5 W/m 6,3 km/h (2 Bft) 95,65 %
05.08.2016 01:02 15,7 C 15,0 C 13,9 C 91 % 1 lf 1012,5 hPa 0,0 l/m 0 min 0 min 5 W/m 8,4 km/h (2 Bft) 95,74 %
05.08.2016 01:04 15,7 C 15,0 C 13,9 C 91 % 1 lf 1012,6 hPa 0,0 l/m 0 min 0 min 5 W/m 8,4 km/h (2 Bft) 95,74 %
05.08.2016 01:06 15,7 C 15,0 C 13,9 C 91 % 1 lf 1012,6 hPa 0,0 l/m 0 min 0 min 5 W/m 6,3 km/h (2 Bft) 95,74 %
05.08.2016 01:08 15,7 C 15,0 C 13,9 C 91 % 1 lf 1012,6 hPa 0,0 l/m 0 min 0 min 5 W/m 8,4 km/h (2 Bft) 91,49 %
05.08.2016 01:10 15,7 C 15,0 C 13,9 C 91 % 1 lf 1012,6 hPa 0,0 l/m 0 min 0 min 5 W/m 8,4 km/h (2 Bft) 95,74 %
05.08.2016 01:12 15,7 C 15,0 C 13,9 C 91 % 1 lf 1012,7 hPa 0,0 l/m 0 min 0 min 5 W/m 10,5 km/h (2 Bft) 95,65 %
05.08.2016 01:14 15,7 C 15,0 C 13,9 C 91 % 1 lf 1012,7 hPa 0,0 l/m 0 min 0 min 5 W/m 8,4 km/h (2 Bft) 95,74 %
05.08.2016 01:16 15,7 C 15,0 C 13,9 C 91 % 1 lf 1012,6 hPa 0,0 l/m 0 min 0 min 5 W/m 10,5 km/h (2 Bft) 89,36 %
05.08.2016 01:18 15,6 C 15,0 C 13,9 C 91 % 1 lf 1012,6 hPa 0,0 l/m 0 min 0 min 5 W/m 6,3 km/h (2 Bft) 95,74 %
05.08.2016 01:20 15,6 C 15,0 C 13,3 C 91 % 1 lf 1012,5 hPa 0,0 l/m 0 min 0 min 5 W/m 8,4 km/h (2 Bft) 95,74 %
05.08.2016 01:22 15,6 C 15,0 C 13,9 C 91 % 1 lf 1012,4 hPa 0,0 l/m 0 min 0 min 5 W/m 8,4 km/h (2 Bft) 97,87 %
05.08.2016 01:24 15,6 C 15,0 C 13,9 C 91 % 1 lf 1012,5 hPa 0,0 l/m 0 min 0 min 5 W/m 8,4 km/h (2 Bft) 97,83 %
05.08.2016 01:26 15,6 C 15,0 C 13,9 C 91 % 1 lf 1012,5 hPa 0,0 l/m 0 min 0 min 5 W/m 6,3 km/h (2 Bft) 95,74 %
05.08.2016 01:28 15,6 C 15,0 C 13,3 C 92 % 1 lf 1012,5 hPa 0,0 l/m 0 min 0 min 5 W/m 8,4 km/h (2 Bft) 91,49 %
05.08.2016 01:30 15,6 C 15,0 C 13,3 C 92 % 1 lf 1012,6 hPa 0,0 l/m 0 min 0 min 5 W/m 8,4 km/h (2 Bft) 97,87 %
05.08.2016 01:32 15,5 C 15,0 C 13,3 C 91 % 1 lf 1012,7 hPa 0,0 l/m 0 min 0 min 5 W/m 8,4 km/h (2 Bft) 97,87 %
05.08.2016 01:34 15,5 C 15,0 C 13,3 C 91 % 1 lf 1012,7 hPa 0,0 l/m 0 min 0 min 5 W/m 8,4 km/h (2 Bft) 95,74 %
05.08.2016 01:36 15,5 C 14,4 C 13,3 C 91 % 1 lf 1012,7 hPa 0,0 l/m 0 min 0 min 5 W/m 6,3 km/h (2 Bft) 97,83 %
05.08.2016 01:38 15,5 C 14,4 C 13,3 C 91 % 1 lf 1012,7 hPa 0,0 l/m 0 min 0 min 5 W/m 8,4 km/h (2 Bft) 95,74 %
05.08.2016 01:40 15,4 C 14,4 C 13,3 C 91 % 1 lf 1012,7 hPa 0,0 l/m 0 min 0 min 5 W/m 8,4 km/h (2 Bft) 97,87 %
05.08.2016 01:42 15,4 C 14,4 C 13,3 C 91 % 1 lf 1012,7 hPa 0,0 l/m 0 min 0 min 5 W/m 10,5 km/h (2 Bft) 95,74 %
05.08.2016 01:44 15,4 C 14,4 C 12,8 C 91 % 1 lf 1012,7 hPa 0,0 l/m 0 min 0 min 5 W/m 6,3 km/h (2 Bft) 100,00 %
05.08.2016 01:46 15,4 C 14,4 C 12,8 C 91 % 1 lf 1012,7 hPa 0,0 l/m 0 min 0 min 5 W/m 8,4 km/h (2 Bft) 97,87 %
05.08.2016 01:48 15,4 C 14,4 C 12,8 C 92 % 1 lf 1012,7 hPa 0,0 l/m 0 min 0 min 5 W/m 8,4 km/h (2 Bft) 100,00 %
05.08.2016 01:50 15,3 C 14,4 C 12,8 C 92 % 2 lf 1012,8 hPa 0,0 l/m 0 min 0 min 5 W/m 8,4 km/h (2 Bft) 100,00 %
05.08.2016 01:52 15,3 C 14,4 C 12,8 C 92 % 2 lf 1012,8 hPa 0,0 l/m 0 min 0 min 5 W/m 8,4 km/h (2 Bft) 97,87 %
05.08.2016 01:54 15,3 C 14,4 C 12,8 C 92 % 2 lf 1012,7 hPa 0,0 l/m 0 min 0 min 5 W/m 10,5 km/h (2 Bft) 100,00 %
05.08.2016 01:56 15,3 C 14,4 C 12,8 C 92 % 2 lf 1012,6 hPa 0,0 l/m 0 min 0 min 5 W/m 8,4 km/h (2 Bft) 97,87 %
05.08.2016 01:58 15,2 C 14,4 C 12,8 C 92 % 2 lf 1012,5 hPa 0,0 l/m 0 min 0 min 5 W/m 8,4 km/h (2 Bft) 97,87 %
05.08.2016 02:00 15,2 C 14,4 C 12,8 C 92 % 2 lf 1012,6 hPa 0,0 l/m 0 min 0 min 5 W/m 8,4 km/h (2 Bft) 93,48 %
05.08.2016 02:02 15,2 C 14,4 C 12,8 C 92 % 2 lf 1012,5 hPa 0,0 l/m 0 min 0 min 5 W/m 6,3 km/h (2 Bft) 95,74 %
05.08.2016 02:04 15,2 C 14,4 C 12,8 C 92 % 2 lf 1012,5 hPa 0,0 l/m 0 min 0 min 5 W/m 8,4 km/h (2 Bft) 95,74 %
05.08.2016 02:06 15,1 C 14,4 C 12,8 C 92 % 2 lf 1012,6 hPa 0,0 l/m 0 min 0 min 5 W/m 12,6 km/h (3 Bft) 95,74 %
05.08.2016 02:08 15,1 C 14,4 C 12,8 C 92 % 2 lf 1012,7 hPa 0,0 l/m 0 min 0 min 5 W/m 8,4 km/h (2 Bft) 95,74 %
05.08.2016 02:10 15,1 C 14,4 C 12,8 C 92 % 2 lf 1012,7 hPa 0,0 l/m 0 min 0 min 5 W/m 6,3 km/h (2 Bft) 97,83 %
05.08.2016 02:12 15,1 C 14,4 C 12,8 C 92 % 2 lf 1012,7 hPa 0,0 l/m 0 min 0 min 5 W/m 8,4 km/h (2 Bft) 97,87 %
05.08.2016 02:14 15,0 C 14,4 C 12,8 C 92 % 2 lf 1012,7 hPa 0,0 l/m 0 min 0 min 5 W/m 6,3 km/h (2 Bft) 97,87 %
05.08.2016 02:16 15,0 C 14,4 C 12,8 C 92 % 2 lf 1012,8 hPa 0,0 l/m 0 min 0 min 5 W/m 8,4 km/h (2 Bft) 91,49 %
05.08.2016 02:18 14,9 C 14,4 C 12,8 C 92 % 2 lf 1012,8 hPa 0,0 l/m 0 min 0 min 5 W/m 10,5 km/h (2 Bft) 93,62 %
05.08.2016 02:20 14,9 C 13,9 C 12,8 C 92 % 2 lf 1012,8 hPa 0,0 l/m 0 min 0 min 5 W/m 8,4 km/h (2 Bft) 97,87 %
05.08.2016 02:22 14,9 C 14,4 C 12,8 C 92 % 2 lf 1012,8 hPa 0,0 l/m 0 min 0 min 5 W/m 10,5 km/h (2 Bft) 97,83 %
05.08.2016 02:24 14,9 C 14,4 C 12,8 C 92 % 2 lf 1012,8 hPa 0,0 l/m 0 min 0 min 5 W/m 6,3 km/h (2 Bft) 95,74 %
05.08.2016 02:26 14,9 C 14,4 C 12,8 C 92 % 2 lf 1012,8 hPa 0,0 l/m 0 min 0 min 5 W/m 8,4 km/h (2 Bft) 97,87 %
05.08.2016 02:28 14,8 C 14,4 C 12,8 C 92 % 2 lf 1012,9 hPa 0,0 l/m 0 min 0 min 5 W/m 6,3 km/h (2 Bft) 91,49 %
05.08.2016 02:30 14,8 C 13,9 C 12,8 C 92 % 2 lf 1012,9 hPa 0,0 l/m 0 min 0 min 5 W/m 6,3 km/h (2 Bft) 95,74 %
05.08.2016 02:32 14,8 C 13,9 C 12,8 C 92 % 2 lf 1012,9 hPa 0,0 l/m 0 min 0 min 5 W/m 12,6 km/h (3 Bft) 95,74 %
05.08.2016 02:34 14,8 C 13,9 C 12,8 C 92 % 2 lf 1012,9 hPa 0,0 l/m 0 min 0 min 5 W/m 8,4 km/h (2 Bft) 93,48 %
05.08.2016 02:36 14,7 C 13,9 C 12,8 C 92 % 2 lf 1012,9 hPa 0,0 l/m 0 min 0 min 5 W/m 8,4 km/h (2 Bft) 97,87 %
05.08.2016 02:38 14,7 C 14,4 C 12,8 C 92 % 2 lf 1013,0 hPa 0,0 l/m 0 min 0 min 5 W/m 10,5 km/h (2 Bft) 97,87 %
05.08.2016 02:40 14,7 C 14,4 C 12,8 C 92 % 2 lf 1012,9 hPa 0,0 l/m 0 min 0 min 5 W/m 10,5 km/h (2 Bft) 95,74 %
05.08.2016 02:42 14,7 C 14,4 C 12,8 C 92 % 2 lf 1012,9 hPa 0,0 l/m 0 min 0 min 5 W/m 8,4 km/h (2 Bft) 97,87 %
05.08.2016 02:44 14,7 C 14,4 C 12,8 C 92 % 2 lf 1012,9 hPa 0,0 l/m 0 min 0 min 5 W/m 10,5 km/h (2 Bft) 95,74 %
05.08.2016 02:46 14,7 C 13,9 C 12,8 C 93 % 2 lf 1012,9 hPa 0,0 l/m 0 min 0 min 5 W/m 10,5 km/h (2 Bft) 91,30 %
05.08.2016 02:48 14,7 C 13,9 C 12,8 C 93 % 2 lf 1012,9 hPa 0,0 l/m 0 min 0 min 5 W/m 10,5 km/h (2 Bft) 95,74 %
05.08.2016 02:50 14,6 C 13,9 C 12,8 C 93 % 2 lf 1012,9 hPa 0,0 l/m 0 min 0 min 5 W/m 8,4 km/h (2 Bft) 95,74 %
05.08.2016 02:52 14,6 C 13,9 C 12,8 C 93 % 2 lf 1012,9 hPa 0,0 l/m 0 min 0 min 5 W/m 6,3 km/h (2 Bft) 97,87 %
05.08.2016 02:54 14,6 C 13,9 C 12,8 C 93 % 2 lf 1012,9 hPa 0,0 l/m 0 min 0 min 5 W/m 6,3 km/h (2 Bft) 95,74 %
05.08.2016 02:56 14,6 C 13,9 C 12,8 C 93 % 2 lf 1012,9 hPa 0,0 l/m 0 min 0 min 5 W/m 8,4 km/h (2 Bft) 97,87 %
05.08.2016 02:58 14,6 C 13,9 C 12,2 C 93 % 2 lf 1012,9 hPa 0,0 l/m 0 min 0 min 5 W/m 8,4 km/h (2 Bft) 95,65 %
05.08.2016 03:00 14,6 C 13,9 C 12,2 C 93 % 2 lf 1012,8 hPa 0,0 l/m 0 min 0 min 5 W/m 6,3 km/h (2 Bft) 97,87 %
05.08.2016 03:02 14,5 C 13,9 C 12,8 C 93 % 2 lf 1012,8 hPa 0,0 l/m 0 min 0 min 5 W/m 8,4 km/h (2 Bft) 95,74 %
05.08.2016 03:04 14,5 C 13,9 C 12,2 C 93 % 2 lf 1012,8 hPa 0,0 l/m 0 min 0 min 5 W/m 6,3 km/h (2 Bft) 95,74 %
05.08.2016 03:06 14,5 C 13,9 C 12,2 C 93 % 2 lf 1012,8 hPa 0,0 l/m 0 min 0 min 5 W/m 6,3 km/h (2 Bft) 97,87 %
05.08.2016 03:08 14,4 C 13,9 C 12,2 C 93 % 2 lf 1012,8 hPa 0,0 l/m 0 min 0 min 5 W/m 6,3 km/h (2 Bft) 97,87 %
05.08.2016 03:10 14,4 C 13,9 C 12,2 C 93 % 2 lf 1012,9 hPa 0,0 l/m 0 min 0 min 5 W/m 6,3 km/h (2 Bft) 93,48 %
05.08.2016 03:12 14,4 C 13,9 C 12,2 C 93 % 2 lf 1012,9 hPa 0,0 l/m 0 min 0 min 5 W/m 8,4 km/h (2 Bft) 89,36 %
05.08.2016 03:14 14,4 C 13,9 C 12,2 C 93 % 2 lf 1013,0 hPa 0,0 l/m 0 min 0 min 5 W/m 8,4 km/h (2 Bft) 97,87 %
05.08.2016 03:16 14,4 C 13,9 C 12,2 C 93 % 2 lf 1013,0 hPa 0,0 l/m 0 min 0 min 5 W/m 8,4 km/h (2 Bft) 95,74 %
05.08.2016 03:18 14,4 C 13,9 C 12,2 C 93 % 2 lf 1013,0 hPa 0,0 l/m 0 min 0 min 5 W/m 8,4 km/h (2 Bft) 95,74 %
05.08.2016 03:20 14,3 C 13,9 C 12,2 C 93 % 2 lf 1013,0 hPa 0,0 l/m 0 min 0 min 5 W/m 8,4 km/h (2 Bft) 100,00 %
05.08.2016 03:22 14,3 C 13,9 C 12,2 C 93 % 2 lf 1013,1 hPa 0,0 l/m 0 min 0 min 5 W/m 8,4 km/h (2 Bft) 95,65 %
05.08.2016 03:24 14,3 C 13,9 C 12,2 C 93 % 2 lf 1013,0 hPa 0,0 l/m 0 min 0 min 5 W/m 6,3 km/h (2 Bft) 97,87 %
05.08.2016 03:26 14,2 C 13,9 C 12,2 C 93 % 2 lf 1013,1 hPa 0,0 l/m 0 min 0 min 5 W/m 10,5 km/h (2 Bft) 91,49 %
05.08.2016 03:28 14,2 C 13,9 C 12,2 C 93 % 2 lf 1013,1 hPa 0,0 l/m 0 min 0 min 5 W/m 8,4 km/h (2 Bft) 100,00 %
05.08.2016 03:30 14,2 C 13,9 C 12,2 C 93 % 2 lf 1013,1 hPa 0,0 l/m 0 min 0 min 5 W/m 10,5 km/h (2 Bft) 95,74 %
05.08.2016 03:32 14,2 C 13,9 C 12,2 C 93 % 2 lf 1013,2 hPa 0,0 l/m 0 min 0 min 5 W/m 8,4 km/h (2 Bft) 97,83 %
05.08.2016 03:34 14,2 C 13,9 C 12,2 C 93 % 2 lf 1013,2 hPa 0,0 l/m 0 min 0 min 5 W/m 12,6 km/h (3 Bft) 97,87 %
05.08.2016 03:36 14,2 C 13,9 C 12,2 C 93 % 2 lf 1013,1 hPa 0,0 l/m 0 min 0 min 5 W/m 10,5 km/h (2 Bft) 95,74 %
05.08.2016 03:38 14,2 C 13,9 C 12,2 C 93 % 2 lf 1013,1 hPa 0,0 l/m 0 min 0 min 5 W/m 10,5 km/h (2 Bft) 97,87 %
05.08.2016 03:40 14,2 C 13,9 C 12,2 C 93 % 2 lf 1013,1 hPa 0,0 l/m 0 min 0 min 5 W/m 8,4 km/h (2 Bft) 93,62 %
05.08.2016 03:42 14,2 C 13,9 C 12,2 C 93 % 2 lf 1013,2 hPa 0,0 l/m 0 min 0 min 5 W/m 10,5 km/h (2 Bft) 93,62 %
05.08.2016 03:44 14,2 C 13,9 C 12,2 C 93 % 2 lf 1013,2 hPa 0,0 l/m 0 min 0 min 5 W/m 10,5 km/h (2 Bft) 95,65 %
05.08.2016 03:46 14,2 C 13,9 C 12,2 C 93 % 2 lf 1013,2 hPa 0,0 l/m 0 min 0 min 5 W/m 12,6 km/h (3 Bft) 95,74 %
05.08.2016 03:48 14,2 C 13,9 C 12,2 C 93 % 2 lf 1013,1 hPa 0,0 l/m 0 min 0 min 5 W/m 8,4 km/h (2 Bft) 95,74 %
05.08.2016 03:50 14,2 C 13,9 C 12,8 C 93 % 2 lf 1013,1 hPa 0,0 l/m 0 min 0 min 5 W/m 12,6 km/h (3 Bft) 95,74 %
05.08.2016 03:52 14,2 C 13,9 C 12,8 C 93 % 2 lf 1013,1 hPa 0,0 l/m 0 min 0 min 5 W/m 10,5 km/h (2 Bft) 95,74 %
05.08.2016 03:54 14,2 C 13,9 C 12,2 C 94 % 2 lf 1013,1 hPa 0,0 l/m 0 min 0 min 5 W/m 8,4 km/h (2 Bft) 93,62 %
05.08.2016 03:56 14,2 C 13,9 C 12,2 C 94 % 2 lf 1013,0 hPa 0,0 l/m 0 min 0 min 5 W/m 10,5 km/h (2 Bft) 93,48 %
05.08.2016 03:58 14,2 C 13,9 C 12,2 C 94 % 2 lf 1013,0 hPa 0,0 l/m 0 min 0 min 5 W/m 10,5 km/h (2 Bft) 95,74 %
05.08.2016 04:00 14,2 C 13,9 C 12,2 C 94 % 2 lf 1013,1 hPa 0,0 l/m 0 min 0 min 5 W/m 10,5 km/h (2 Bft) 93,62 %
05.08.2016 04:05 14,2 C 13,3 C 12,2 C 94 % 2 lf 1013,3 hPa 0,0 l/m 0 min 0 min 5 W/m 10,5 km/h (2 Bft) 92,65 %
05.08.2016 04:06 14,2 C 13,3 C 12,2 C 94 % 2 lf 1013,3 hPa 0,0 l/m 0 min 0 min 5 W/m 10,5 km/h (2 Bft) 100,00 %
05.08.2016 04:08 14,2 C 13,3 C 12,2 C 94 % 2 lf 1013,2 hPa 0,0 l/m 0 min 0 min 5 W/m 10,5 km/h (2 Bft) 95,65 %
05.08.2016 04:10 14,2 C 13,9 C 12,2 C 94 % 2 lf 1013,2 hPa 0,0 l/m 0 min 0 min 5 W/m 12,6 km/h (3 Bft) 93,62 %
05.08.2016 04:12 14,2 C 13,9 C 12,2 C 94 % 2 lf 1013,2 hPa 0,0 l/m 0 min 0 min 5 W/m 12,6 km/h (3 Bft) 93,62 %
05.08.2016 04:14 14,1 C 13,9 C 12,2 C 94 % 2 lf 1013,4 hPa 0,0 l/m 0 min 0 min 5 W/m 10,5 km/h (2 Bft) 95,74 %
05.08.2016 04:16 14,1 C 13,9 C 12,2 C 94 % 2 lf 1013,4 hPa 0,0 l/m 0 min 0 min 5 W/m 12,6 km/h (3 Bft) 93,62 %
05.08.2016 04:18 14,1 C 13,9 C 12,2 C 94 % 2 lf 1013,4 hPa 0,0 l/m 0 min 0 min 5 W/m 14,6 km/h (3 Bft) 93,62 %
05.08.2016 04:20 14,1 C 13,9 C 12,2 C 94 % 2 lf 1013,5 hPa 0,0 l/m 0 min 0 min 5 W/m 12,6 km/h (3 Bft) 93,48 %
05.08.2016 04:22 14,1 C 13,3 C 12,2 C 94 % 2 lf 1013,6 hPa 0,0 l/m 0 min 0 min 5 W/m 10,5 km/h (2 Bft) 95,74 %
05.08.2016 04:24 14,0 C 13,3 C 12,2 C 94 % 2 lf 1013,6 hPa 0,0 l/m 0 min 0 min 5 W/m 8,4 km/h (2 Bft) 95,74 %
05.08.2016 04:26 14,0 C 13,3 C 12,2 C 94 % 2 lf 1013,8 hPa 0,0 l/m 0 min 0 min 5 W/m 12,6 km/h (3 Bft) 95,74 %
05.08.2016 04:28 14,0 C 13,3 C 12,2 C 94 % 2 lf 1013,8 hPa 0,0 l/m 0 min 0 min 5 W/m 8,4 km/h (2 Bft) 91,49 %
05.08.2016 04:30 13,9 C 13,3 C 12,2 C 94 % 2 lf 1013,9 hPa 0,0 l/m 0 min 0 min 5 W/m 8,4 km/h (2 Bft) 95,74 %
05.08.2016 04:32 13,9 C 13,3 C 12,2 C 94 % 2 lf 1013,9 hPa 0,0 l/m 0 min 0 min 5 W/m 10,5 km/h (2 Bft) 97,83 %
05.08.2016 04:34 13,9 C 13,3 C 12,2 C 94 % 2 lf 1013,9 hPa 0,0 l/m 0 min 0 min 5 W/m 14,6 km/h (3 Bft) 95,74 %
05.08.2016 04:36 13,8 C 13,3 C 12,2 C 94 % 2 lf 1013,9 hPa 0,0 l/m 0 min 0 min 5 W/m 8,4 km/h (2 Bft) 97,87 %
05.08.2016 04:38 13,8 C 13,3 C 12,2 C 94 % 2 lf 1013,9 hPa 0,0 l/m 0 min 0 min 5 W/m 10,5 km/h (2 Bft) 91,49 %
05.08.2016 04:40 13,8 C 13,3 C 12,2 C 94 % 2 lf 1013,9 hPa 0,0 l/m 0 min 0 min 5 W/m 12,6 km/h (3 Bft) 95,74 %
05.08.2016 04:42 13,8 C 13,3 C 12,2 C 94 % 2 lf 1013,9 hPa 0,0 l/m 0 min 0 min 5 W/m 6,3 km/h (2 Bft) 97,87 %
05.08.2016 04:44 13,8 C 13,3 C 12,2 C 94 % 2 lf 1013,9 hPa 0,0 l/m 0 min 0 min 5 W/m 12,6 km/h (3 Bft) 100,00 %
05.08.2016 04:46 13,8 C 13,3 C 12,2 C 94 % 2 lf 1013,9 hPa 0,0 l/m 0 min 0 min 5 W/m 10,5 km/h (2 Bft) 97,87 %
05.08.2016 04:48 13,7 C 13,3 C 12,2 C 94 % 2 lf 1014,0 hPa 0,0 l/m 0 min 0 min 5 W/m 10,5 km/h (2 Bft) 95,74 %
05.08.2016 04:50 13,7 C 13,3 C 12,2 C 94 % 2 lf 1014,1 hPa 0,0 l/m 0 min 0 min 5 W/m 12,6 km/h (3 Bft) 95,74 %
05.08.2016 04:52 13,7 C 13,3 C 12,2 C 94 % 2 lf 1014,1 hPa 0,0 l/m 0 min 0 min 5 W/m 10,5 km/h (2 Bft) 97,87 %
05.08.2016 04:54 13,7 C 13,9 C 12,2 C 94 % 2 lf 1014,0 hPa 0,0 l/m 0 min 0 min 5 W/m 10,5 km/h (2 Bft) 95,65 %
05.08.2016 04:56 13,7 C 13,9 C 12,2 C 94 % 2 lf 1014,0 hPa 0,0 l/m 0 min 0 min 5 W/m 14,6 km/h (3 Bft) 95,74 %
05.08.2016 04:58 13,7 C 13,9 C 12,2 C 94 % 1 lf 1014,0 hPa 0,0 l/m 0 min 0 min 5 W/m 8,4 km/h (2 Bft) 93,62 %
05.08.2016 05:00 13,7 C 13,9 C 12,2 C 94 % 2 lf 1014,0 hPa 0,0 l/m 0 min 0 min 5 W/m 8,4 km/h (2 Bft) 95,74 %
05.08.2016 05:02 13,7 C 13,9 C 12,2 C 94 % 2 lf 1013,9 hPa 0,0 l/m 0 min 0 min 5 W/m 10,5 km/h (2 Bft) 95,74 %
05.08.2016 05:04 13,7 C 13,3 C 12,2 C 94 % 2 lf 1013,9 hPa 0,0 l/m 0 min 0 min 5 W/m 8,4 km/h (2 Bft) 93,62 %
05.08.2016 05:06 13,7 C 13,3 C 12,2 C 94 % 1 lf 1013,9 hPa 0,0 l/m 0 min 0 min 5 W/m 12,6 km/h (3 Bft) 97,87 %
05.08.2016 05:08 13,7 C 13,3 C 12,2 C 94 % 1 lf 1013,9 hPa 0,0 l/m 0 min 0 min 5 W/m 12,6 km/h (3 Bft) 93,48 %
05.08.2016 05:10 13,6 C 13,3 C 12,2 C 94 % 1 lf 1013,9 hPa 0,0 l/m 0 min 0 min 5 W/m 8,4 km/h (2 Bft) 97,87 %
05.08.2016 05:12 13,6 C 13,3 C 12,2 C 94 % 2 lf 1013,8 hPa 0,0 l/m 0 min 0 min 5 W/m 8,4 km/h (2 Bft) 97,87 %
05.08.2016 05:14 13,6 C 13,3 C 12,2 C 94 % 2 lf 1013,9 hPa 0,0 l/m 0 min 0 min 5 W/m 8,4 km/h (2 Bft) 97,87 %
05.08.2016 05:16 13,6 C 13,3 C 12,2 C 94 % 2 lf 1013,9 hPa 0,0 l/m 0 min 0 min 5 W/m 10,5 km/h (2 Bft) 95,74 %
05.08.2016 05:18 13,6 C 13,3 C 12,2 C 94 % 2 lf 1014,0 hPa 0,0 l/m 0 min 0 min 5 W/m 6,3 km/h (2 Bft) 97,83 %
05.08.2016 05:20 13,6 C 13,3 C 11,7 C 94 % 2 lf 1014,0 hPa 0,0 l/m 0 min 0 min 5 W/m 8,4 km/h (2 Bft) 95,74 %
05.08.2016 05:22 13,6 C 13,3 C 11,7 C 94 % 2 lf 1014,1 hPa 0,0 l/m 0 min 0 min 5 W/m 6,3 km/h (2 Bft) 95,74 %
05.08.2016 05:24 13,6 C 12,8 C 11,7 C 94 % 2 lf 1014,2 hPa 0,0 l/m 0 min 0 min 5 W/m 6,3 km/h (2 Bft) 97,87 %
05.08.2016 05:26 13,6 C 12,8 C 11,7 C 94 % 2 lf 1014,3 hPa 0,0 l/m 0 min 0 min 5 W/m 6,3 km/h (2 Bft) 93,62 %
05.08.2016 05:28 13,6 C 12,8 C 11,7 C 94 % 2 lf 1014,2 hPa 0,0 l/m 0 min 0 min 5 W/m 8,4 km/h (2 Bft) 95,74 %
05.08.2016 05:30 13,6 C 12,8 C 11,7 C 94 % 2 lf 1014,1 hPa 0,0 l/m 0 min 0 min 5 W/m 8,4 km/h (2 Bft) 97,83 %
05.08.2016 05:32 13,5 C 12,8 C 11,7 C 94 % 2 lf 1014,2 hPa 0,0 l/m 0 min 0 min 5 W/m 8,4 km/h (2 Bft) 95,74 %
05.08.2016 05:34 13,5 C 12,8 C 11,7 C 94 % 2 lf 1014,2 hPa 0,0 l/m 0 min 0 min 5 W/m 12,6 km/h (3 Bft) 95,74 %
05.08.2016 05:36 13,5 C 12,8 C 11,7 C 94 % 2 lf 1014,2 hPa 0,0 l/m 0 min 0 min 5 W/m 8,4 km/h (2 Bft) 97,87 %
05.08.2016 05:38 13,5 C 12,8 C 11,7 C 94 % 2 lf 1014,1 hPa 0,0 l/m 0 min 0 min 5 W/m 10,5 km/h (2 Bft) 95,74 %
05.08.2016 05:40 13,5 C 12,8 C 11,7 C 94 % 2 lf 1014,2 hPa 0,0 l/m 0 min 0 min 5 W/m 12,6 km/h (3 Bft) 97,87 %
05.08.2016 05:42 13,4 C 12,8 C 11,7 C 94 % 2 lf 1014,1 hPa 0,0 l/m 0 min 0 min 5 W/m 12,6 km/h (3 Bft) 97,83 %
05.08.2016 05:44 13,4 C 12,8 C 11,7 C 94 % 2 lf 1014,1 hPa 0,0 l/m 0 min 0 min 5 W/m 12,6 km/h (3 Bft) 93,62 %
05.08.2016 05:46 13,4 C 13,3 C 12,2 C 94 % 2 lf 1014,2 hPa 0,0 l/m 0 min 0 min 5 W/m 8,4 km/h (2 Bft) 97,87 %
05.08.2016 05:48 13,4 C 13,3 C 12,2 C 94 % 2 lf 1014,1 hPa 0,0 l/m 0 min 0 min 5 W/m 8,4 km/h (2 Bft) 97,87 %
05.08.2016 05:50 13,4 C 13,3 C 12,2 C 94 % 2 lf 1014,1 hPa 0,0 l/m 0 min 0 min 5 W/m 10,5 km/h (2 Bft) 100,00 %
05.08.2016 05:52 13,4 C 13,3 C 12,2 C 94 % 2 lf 1014,1 hPa 0,0 l/m 0 min 0 min 5 W/m 14,6 km/h (3 Bft) 100,00 %
05.08.2016 05:54 13,4 C 13,3 C 12,2 C 94 % 2 lf 1014,1 hPa 0,0 l/m 0 min 0 min 5 W/m 14,6 km/h (3 Bft) 100,00 %
05.08.2016 05:56 13,4 C 13,3 C 12,2 C 94 % 2 lf 1014,1 hPa 0,0 l/m 0 min 0 min 7 W/m 18,8 km/h (3 Bft) 97,87 %
05.08.2016 05:58 13,4 C 13,3 C 12,2 C 94 % 2 lf 1014,1 hPa 0,0 l/m 0 min 0 min 7 W/m 14,6 km/h (3 Bft) 100,00 %
05.08.2016 06:00 13,4 C 13,3 C 12,2 C 94 % 2 lf 1014,2 hPa 0,0 l/m 0 min 0 min 7 W/m 12,6 km/h (3 Bft) 100,00 %
05.08.2016 06:02 13,4 C 13,3 C 12,2 C 94 % 1 lf 1014,2 hPa 0,0 l/m 0 min 0 min 7 W/m 14,6 km/h (3 Bft) 100,00 %
05.08.2016 06:04 13,4 C 13,3 C 12,2 C 94 % 1 lf 1014,2 hPa 0,0 l/m 0 min 0 min 7 W/m 16,7 km/h (3 Bft) 95,74 %
05.08.2016 06:06 13,4 C 13,9 C 12,2 C 94 % 1 lf 1014,3 hPa 0,0 l/m 0 min 0 min 7 W/m 12,6 km/h (3 Bft) 100,00 %
05.08.2016 06:08 13,5 C 13,9 C 12,2 C 94 % 1 lf 1014,3 hPa 0,0 l/m 0 min 0 min 9 W/m 10,5 km/h (2 Bft) 100,00 %
05.08.2016 06:10 13,5 C 13,9 C 12,2 C 94 % 1 lf 1014,3 hPa 0,0 l/m 0 min 0 min 9 W/m 10,5 km/h (2 Bft) 95,74 %
05.08.2016 06:12 13,5 C 13,9 C 12,2 C 94 % 1 lf 1014,2 hPa 0,0 l/m 0 min 0 min 9 W/m 12,6 km/h (3 Bft) 95,74 %
05.08.2016 06:14 13,5 C 13,9 C 12,2 C 94 % 1 lf 1014,2 hPa 0,0 l/m 0 min 0 min 11 W/m 10,5 km/h (2 Bft) 100,00 %
05.08.2016 06:16 13,5 C 13,9 C 12,2 C 94 % 1 lf 1014,2 hPa 0,0 l/m 0 min 0 min 11 W/m 10,5 km/h (2 Bft) 100,00 %
05.08.2016 06:18 13,5 C 13,9 C 12,2 C 94 % 1 lf 1014,3 hPa 0,0 l/m 0 min 0 min 11 W/m 18,8 km/h (3 Bft) 95,74 %
05.08.2016 06:20 13,5 C 13,9 C 12,2 C 94 % 1 lf 1014,3 hPa 0,0 l/m 0 min 0 min 12 W/m 14,6 km/h (3 Bft) 100,00 %
05.08.2016 06:22 13,6 C 13,9 C 12,2 C 94 % 1 lf 1014,3 hPa 0,0 l/m 0 min 0 min 12 W/m 16,7 km/h (3 Bft) 100,00 %
05.08.2016 06:24 13,6 C 13,9 C 12,2 C 94 % 1 lf 1014,4 hPa 0,0 l/m 0 min 0 min 12 W/m 14,6 km/h (3 Bft) 95,74 %
05.08.2016 06:26 13,6 C 13,9 C 12,2 C 94 % 1 lf 1014,3 hPa 0,0 l/m 0 min 0 min 14 W/m 14,6 km/h (3 Bft) 97,87 %
05.08.2016 06:28 13,6 C 13,3 C 12,2 C 94 % 1 lf 1014,4 hPa 0,0 l/m 0 min 0 min 14 W/m 14,6 km/h (3 Bft) 95,65 %
05.08.2016 06:30 13,6 C 13,3 C 12,2 C 94 % 1 lf 1014,4 hPa 0,0 l/m 0 min 0 min 15 W/m 20,9 km/h (4 Bft) 95,74 %
05.08.2016 06:32 13,6 C 13,3 C 12,2 C 94 % 1 lf 1014,4 hPa 0,0 l/m 0 min 0 min 16 W/m 14,6 km/h (3 Bft) 95,74 %
05.08.2016 06:34 13,6 C 13,3 C 12,2 C 94 % 1 lf 1014,4 hPa 0,0 l/m 0 min 0 min 17 W/m 18,8 km/h (3 Bft) 95,74 %
05.08.2016 06:36 13,6 C 13,3 C 12,2 C 94 % 1 lf 1014,5 hPa 0,0 l/m 0 min 0 min 18 W/m 14,6 km/h (3 Bft) 93,62 %
05.08.2016 06:38 13,6 C 13,3 C 12,2 C 94 % 1 lf 1014,5 hPa 0,0 l/m 0 min 0 min 18 W/m 16,7 km/h (3 Bft) 95,74 %
05.08.2016 06:40 13,6 C 13,3 C 12,2 C 94 % 2 lf 1014,5 hPa 0,0 l/m 0 min 0 min 18 W/m 16,7 km/h (3 Bft) 97,87 %
05.08.2016 06:42 13,6 C 13,9 C 12,2 C 94 % 2 lf 1014,5 hPa 0,0 l/m 0 min 0 min 18 W/m 14,6 km/h (3 Bft) 95,65 %
05.08.2016 06:44 13,6 C 13,9 C 12,2 C 94 % 2 lf 1014,5 hPa 0,0 l/m 0 min 0 min 18 W/m 16,7 km/h (3 Bft) 87,23 %
05.08.2016 06:46 13,6 C 13,9 C 12,2 C 94 % 2 lf 1014,5 hPa 0,0 l/m 0 min 0 min 19 W/m 14,6 km/h (3 Bft) 95,74 %
05.08.2016 06:48 13,6 C 13,9 C 12,2 C 94 % 2 lf 1014,5 hPa 0,0 l/m 0 min 0 min 19 W/m 16,7 km/h (3 Bft) 95,74 %
05.08.2016 06:50 13,6 C 13,9 C 12,2 C 94 % 1 lf 1014,5 hPa 0,0 l/m 0 min 0 min 20 W/m 18,8 km/h (3 Bft) 95,74 %
05.08.2016 06:52 13,6 C 13,9 C 12,2 C 94 % 2 lf 1014,6 hPa 0,0 l/m 0 min 0 min 21 W/m 10,5 km/h (2 Bft) 97,83 %
05.08.2016 06:54 13,6 C 13,9 C 12,2 C 94 % 2 lf 1014,6 hPa 0,0 l/m 0 min 0 min 21 W/m 16,7 km/h (3 Bft) 95,74 %
05.08.2016 06:56 13,6 C 13,9 C 12,2 C 94 % 1 lf 1014,6 hPa 0,0 l/m 0 min 0 min 23 W/m 12,6 km/h (3 Bft) 95,74 %
05.08.2016 06:58 13,6 C 13,9 C 12,2 C 94 % 1 lf 1014,6 hPa 0,0 l/m 0 min 0 min 24 W/m 12,6 km/h (3 Bft) 91,49 %
05.08.2016 07:00 13,6 C 13,9 C 12,8 C 94 % 1 lf 1014,6 hPa 0,0 l/m 0 min 0 min 23 W/m 14,6 km/h (3 Bft) 93,62 %
05.08.2016 07:02 13,7 C 13,9 C 12,8 C 95 % 1 lf 1014,7 hPa 0,0 l/m 0 min 0 min 24 W/m 14,6 km/h (3 Bft) 95,74 %
05.08.2016 07:04 13,7 C 13,9 C 12,8 C 95 % 1 lf 1014,7 hPa 0,0 l/m 0 min 0 min 31 W/m 12,6 km/h (3 Bft) 97,83 %
05.08.2016 07:06 13,7 C 14,4 C 12,8 C 95 % 1 lf 1014,7 hPa 0,0 l/m 0 min 0 min 39 W/m 12,6 km/h (3 Bft) 95,74 %
05.08.2016 07:08 13,7 C 14,4 C 12,8 C 95 % 1 lf 1014,8 hPa 0,0 l/m 0 min 0 min 37 W/m 12,6 km/h (3 Bft) 93,62 %
05.08.2016 07:10 13,7 C 14,4 C 13,3 C 95 % 1 lf 1014,9 hPa 0,0 l/m 0 min 0 min 46 W/m 23,0 km/h (4 Bft) 97,87 %
05.08.2016 07:12 13,8 C 14,4 C 13,3 C 95 % 1 lf 1014,9 hPa 0,0 l/m 0 min 0 min 48 W/m 16,7 km/h (3 Bft) 95,74 %
05.08.2016 07:14 13,8 C 14,4 C 13,3 C 95 % 1 lf 1015,1 hPa 0,0 l/m 0 min 0 min 43 W/m 12,6 km/h (3 Bft) 97,83 %
05.08.2016 07:16 13,9 C 14,4 C 13,3 C 95 % 1 lf 1015,0 hPa 0,0 l/m 0 min 0 min 45 W/m 12,6 km/h (3 Bft) 97,87 %
05.08.2016 07:18 13,9 C 14,4 C 13,3 C 95 % 1 lf 1015,0 hPa 0,0 l/m 0 min 0 min 47 W/m 12,6 km/h (3 Bft) 93,62 %
05.08.2016 07:20 14,0 C 15,0 C 13,9 C 95 % 1 lf 1015,0 hPa 0,0 l/m 0 min 0 min 51 W/m 16,7 km/h (3 Bft) 97,87 %
05.08.2016 07:22 14,1 C 15,0 C 13,9 C 95 % 1 lf 1015,0 hPa 0,0 l/m 0 min 0 min 49 W/m 18,8 km/h (3 Bft) 100,00 %
05.08.2016 07:24 14,2 C 15,0 C 13,9 C 95 % 1 lf 1015,0 hPa 0,0 l/m 0 min 0 min 49 W/m 18,8 km/h (3 Bft) 100,00 %
05.08.2016 07:26 14,2 C 15,0 C 13,9 C 95 % 1 lf 1015,1 hPa 0,0 l/m 0 min 0 min 45 W/m 12,6 km/h (3 Bft) 100,00 %
05.08.2016 07:28 14,2 C 15,0 C 13,9 C 95 % 1 lf 1015,1 hPa 0,0 l/m 0 min 0 min 50 W/m 18,8 km/h (3 Bft) 100,00 %
05.08.2016 07:30 14,2 C 15,0 C 13,9 C 95 % 1 lf 1015,2 hPa 0,0 l/m 0 min 0 min 56 W/m 12,6 km/h (3 Bft) 100,00 %
05.08.2016 07:32 14,2 C 15,0 C 13,9 C 95 % 1 lf 1015,3 hPa 0,0 l/m 0 min 0 min 56 W/m 18,8 km/h (3 Bft) 97,87 %
05.08.2016 07:34 14,2 C 15,0 C 13,9 C 95 % 1 lf 1015,2 hPa 0,0 l/m 0 min 0 min 60 W/m 10,5 km/h (2 Bft) 91,49 %
05.08.2016 07:36 14,3 C 15,0 C 13,9 C 95 % 1 lf 1015,2 hPa 0,0 l/m 0 min 0 min 63 W/m 18,8 km/h (3 Bft) 97,87 %
05.08.2016 07:38 14,3 C 15,0 C 13,9 C 95 % 1 lf 1015,2 hPa 0,0 l/m 0 min 0 min 64 W/m 12,6 km/h (3 Bft) 97,83 %
05.08.2016 07:40 14,4 C 15,0 C 13,9 C 95 % 1 lf 1015,1 hPa 0,0 l/m 0 min 0 min 65 W/m 23,0 km/h (4 Bft) 95,74 %
05.08.2016 07:42 14,4 C 15,6 C 14,4 C 95 % 1 lf 1015,2 hPa 0,0 l/m 0 min 0 min 75 W/m 10,5 km/h (2 Bft) 97,87 %
05.08.2016 07:44 14,4 C 15,6 C 14,4 C 95 % 1 lf 1015,3 hPa 0,0 l/m 0 min 0 min 81 W/m 14,6 km/h (3 Bft) 97,87 %
05.08.2016 07:46 14,5 C 15,6 C 14,4 C 95 % 1 lf 1015,3 hPa 0,0 l/m 0 min 0 min 90 W/m 14,6 km/h (3 Bft) 97,87 %
05.08.2016 07:48 14,6 C 15,6 C 14,4 C 95 % 1 lf 1015,3 hPa 0,0 l/m 0 min 0 min 87 W/m 14,6 km/h (3 Bft) 91,49 %
05.08.2016 07:50 14,6 C 15,6 C 14,4 C 95 % 1 lf 1015,3 hPa 0,0 l/m 0 min 0 min 84 W/m 10,5 km/h (2 Bft) 93,48 %
05.08.2016 07:52 14,6 C 15,6 C 14,4 C 95 % 1 lf 1015,3 hPa 0,0 l/m 0 min 0 min 91 W/m 14,6 km/h (3 Bft) 89,36 %
05.08.2016 07:54 14,7 C 15,6 C 14,4 C 95 % 1 lf 1015,2 hPa 0,0 l/m 0 min 0 min 95 W/m 18,8 km/h (3 Bft) 91,49 %
05.08.2016 07:56 14,7 C 15,6 C 14,4 C 95 % 1 lf 1015,3 hPa 0,0 l/m 0 min 0 min 88 W/m 14,6 km/h (3 Bft) 93,62 %
05.08.2016 07:58 14,7 C 15,6 C 14,4 C 95 % 1 lf 1015,3 hPa 0,0 l/m 0 min 0 min 90 W/m 12,6 km/h (3 Bft) 95,74 %
05.08.2016 08:00 14,7 C 15,6 C 14,4 C 95 % 1 lf 1015,3 hPa 0,0 l/m 0 min 0 min 93 W/m 14,6 km/h (3 Bft) 93,62 %
05.08.2016 08:02 14,8 C 15,6 C 14,4 C 95 % 1 lf 1015,3 hPa 0,0 l/m 0 min 0 min 88 W/m 18,8 km/h (3 Bft) 93,48 %
05.08.2016 08:04 14,8 C 15,6 C 14,4 C 95 % 1 lf 1015,3 hPa 0,0 l/m 0 min 0 min 88 W/m 18,8 km/h (3 Bft) 95,74 %
05.08.2016 08:06 14,8 C 15,6 C 15,0 C 95 % 1 lf 1015,3 hPa 0,0 l/m 0 min 0 min 84 W/m 16,7 km/h (3 Bft) 93,62 %
05.08.2016 08:08 14,8 C 15,6 C 15,0 C 95 % 1 lf 1015,3 hPa 0,0 l/m 0 min 0 min 93 W/m 18,8 km/h (3 Bft) 95,74 %
05.08.2016 08:10 14,9 C 15,6 C 15,0 C 95 % 1 lf 1015,3 hPa 0,0 l/m 0 min 0 min 99 W/m 20,9 km/h (4 Bft) 93,62 %
05.08.2016 08:12 14,9 C 15,6 C 15,0 C 95 % 1 lf 1015,4 hPa 0,0 l/m 0 min 0 min 98 W/m 18,8 km/h (3 Bft) 95,74 %
05.08.2016 08:14 14,9 C 15,6 C 15,0 C 95 % 1 lf 1015,4 hPa 0,0 l/m 0 min 0 min 95 W/m 14,6 km/h (3 Bft) 93,48 %
05.08.2016 08:16 14,9 C 15,6 C 15,0 C 95 % 1 lf 1015,3 hPa 0,0 l/m 0 min 0 min 99 W/m 12,6 km/h (3 Bft) 95,74 %
05.08.2016 08:18 14,9 C 15,6 C 15,0 C 95 % 1 lf 1015,4 hPa 0,0 l/m 0 min 0 min 112 W/m 20,9 km/h (4 Bft) 93,62 %
05.08.2016 08:20 15,0 C 16,1 C 15,0 C 95 % 1 lf 1015,4 hPa 0,0 l/m 0 min 0 min 100 W/m 12,6 km/h (3 Bft) 91,49 %
05.08.2016 08:22 15,0 C 16,1 C 15,0 C 95 % 1 lf 1015,4 hPa 0,0 l/m 0 min 0 min 98 W/m 14,6 km/h (3 Bft) 93,62 %
05.08.2016 08:24 15,0 C 16,1 C 15,0 C 95 % 1 lf 1015,4 hPa 0,0 l/m 0 min 0 min 95 W/m 14,6 km/h (3 Bft) 95,74 %
05.08.2016 08:26 15,1 C 16,1 C 15,0 C 95 % 1 lf 1015,5 hPa 0,0 l/m 0 min 0 min 104 W/m 14,6 km/h (3 Bft) 93,48 %
05.08.2016 08:28 15,1 C 16,1 C 15,0 C 95 % 1 lf 1015,5 hPa 0,0 l/m 0 min 0 min 125 W/m 16,7 km/h (3 Bft) 89,36 %
05.08.2016 08:30 15,1 C 16,1 C 15,0 C 95 % 1 lf 1015,6 hPa 0,0 l/m 0 min 0 min 114 W/m 14,6 km/h (3 Bft) 89,36 %
05.08.2016 08:32 15,1 C 16,1 C 15,0 C 95 % 1 lf 1015,6 hPa 0,0 l/m 0 min 0 min 106 W/m 12,6 km/h (3 Bft) 89,36 %
05.08.2016 08:34 15,1 C 16,1 C 15,0 C 95 % 1 lf 1015,7 hPa 0,0 l/m 0 min 0 min 114 W/m 16,7 km/h (3 Bft) 95,74 %
05.08.2016 08:36 15,2 C 16,1 C 15,0 C 95 % 1 lf 1015,7 hPa 0,0 l/m 0 min 0 min 120 W/m 18,8 km/h (3 Bft) 95,65 %
05.08.2016 08:38 15,2 C 16,1 C 15,6 C 95 % 1 lf 1015,8 hPa 0,0 l/m 0 min 0 min 125 W/m 16,7 km/h (3 Bft) 93,62 %
05.08.2016 08:40 15,2 C 16,1 C 15,0 C 95 % 1 lf 1015,8 hPa 0,0 l/m 0 min 0 min 105 W/m 18,8 km/h (3 Bft) 95,74 %
05.08.2016 08:42 15,2 C 16,1 C 15,0 C 95 % 1 lf 1015,8 hPa 0,0 l/m 0 min 0 min 102 W/m 16,7 km/h (3 Bft) 97,87 %
05.08.2016 08:44 15,2 C 16,1 C 15,0 C 95 % 1 lf 1015,9 hPa 0,0 l/m 0 min 0 min 103 W/m 14,6 km/h (3 Bft) 93,62 %
05.08.2016 08:46 15,3 C 16,1 C 15,0 C 95 % 1 lf 1015,9 hPa 0,0 l/m 0 min 0 min 97 W/m 18,8 km/h (3 Bft) 95,74 %
05.08.2016 08:48 15,3 C 16,1 C 15,0 C 95 % 1 lf 1015,9 hPa 0,0 l/m 0 min 0 min 113 W/m 18,8 km/h (3 Bft) 97,83 %
05.08.2016 08:50 15,3 C 16,1 C 15,0 C 95 % 1 lf 1015,9 hPa 0,0 l/m 0 min 0 min 105 W/m 14,6 km/h (3 Bft) 93,62 %
05.08.2016 08:52 15,3 C 16,1 C 15,6 C 95 % 1 lf 1015,9 hPa 0,0 l/m 0 min 0 min 116 W/m 14,6 km/h (3 Bft) 93,62 %
05.08.2016 08:54 15,3 C 16,1 C 15,6 C 95 % 1 lf 1015,9 hPa 0,0 l/m 0 min 0 min 110 W/m 14,6 km/h (3 Bft) 97,87 %
05.08.2016 08:56 15,3 C 16,1 C 15,0 C 95 % 1 lf 1016,0 hPa 0,0 l/m 0 min 0 min 97 W/m 16,7 km/h (3 Bft) 97,87 %
05.08.2016 08:58 15,3 C 16,1 C 15,0 C 95 % 1 lf 1016,0 hPa 0,0 l/m 0 min 0 min 94 W/m 18,8 km/h (3 Bft) 97,87 %
05.08.2016 09:00 15,3 C 16,1 C 15,0 C 95 % 1 lf 1016,0 hPa 0,0 l/m 0 min 0 min 107 W/m 14,6 km/h (3 Bft) 100,00 %
05.08.2016 09:02 15,3 C 16,1 C 15,0 C 95 % 1 lf 1016,1 hPa 0,0 l/m 0 min 0 min 104 W/m 20,9 km/h (4 Bft) 95,74 %
05.08.2016 09:04 15,4 C 16,7 C 15,6 C 95 % 1 lf 1016,1 hPa 0,0 l/m 0 min 0 min 104 W/m 10,5 km/h (2 Bft) 100,00 %
05.08.2016 09:06 15,4 C 16,7 C 15,6 C 95 % 1 lf 1016,1 hPa 0,0 l/m 0 min 0 min 109 W/m 14,6 km/h (3 Bft) 100,00 %
05.08.2016 09:08 15,4 C 16,7 C 15,6 C 95 % 1 lf 1016,1 hPa 0,0 l/m 0 min 0 min 121 W/m 10,5 km/h (2 Bft) 97,87 %
05.08.2016 09:10 15,4 C 16,7 C 15,6 C 95 % 1 lf 1016,2 hPa 0,0 l/m 0 min 0 min 112 W/m 14,6 km/h (3 Bft) 100,00 %
05.08.2016 09:12 15,4 C 16,7 C 15,6 C 95 % 1 lf 1016,2 hPa 0,0 l/m 0 min 0 min 109 W/m 10,5 km/h (2 Bft) 97,83 %
05.08.2016 09:14 15,5 C 16,7 C 15,6 C 95 % 1 lf 1016,2 hPa 0,0 l/m 0 min 0 min 103 W/m 18,8 km/h (3 Bft) 97,87 %
05.08.2016 09:16 15,5 C 16,7 C 15,6 C 95 % 1 lf 1016,3 hPa 0,0 l/m 0 min 0 min 101 W/m 12,6 km/h (3 Bft) 100,00 %
05.08.2016 09:18 15,5 C 16,7 C 15,6 C 95 % 1 lf 1016,3 hPa 0,0 l/m 0 min 0 min 113 W/m 16,7 km/h (3 Bft) 97,87 %
05.08.2016 09:20 15,6 C 16,7 C 15,6 C 95 % 1 lf 1016,2 hPa 0,0 l/m 0 min 0 min 112 W/m 14,6 km/h (3 Bft) 100,00 %
05.08.2016 09:22 15,6 C 16,7 C 15,6 C 95 % 1 lf 1016,3 hPa 0,0 l/m 0 min 0 min 118 W/m 18,8 km/h (3 Bft) 95,74 %
05.08.2016 09:24 15,6 C 16,7 C 15,6 C 95 % 1 lf 1016,4 hPa 0,0 l/m 0 min 0 min 133 W/m 16,7 km/h (3 Bft) 97,83 %
05.08.2016 09:26 15,6 C 16,7 C 15,6 C 95 % 1 lf 1016,4 hPa 0,0 l/m 0 min 0 min 124 W/m 16,7 km/h (3 Bft) 100,00 %
05.08.2016 09:28 15,6 C 16,7 C 15,6 C 95 % 1 lf 1016,3 hPa 0,0 l/m 0 min 0 min 138 W/m 20,9 km/h (4 Bft) 100,00 %
05.08.2016 09:30 15,6 C 16,7 C 15,6 C 95 % 1 lf 1016,3 hPa 0,0 l/m 0 min 0 min 135 W/m 12,6 km/h (3 Bft) 97,87 %
05.08.2016 09:32 15,6 C 16,7 C 16,1 C 95 % 1 lf 1016,3 hPa 0,0 l/m 0 min 0 min 157 W/m 23,0 km/h (4 Bft) 97,87 %
05.08.2016 09:34 15,7 C 17,2 C 16,1 C 95 % 1 lf 1016,4 hPa 0,0 l/m 0 min 0 min 148 W/m 16,7 km/h (3 Bft) 93,62 %
05.08.2016 09:36 15,7 C 17,2 C 16,1 C 95 % 1 lf 1016,4 hPa 0,0 l/m 0 min 0 min 120 W/m 12,6 km/h (3 Bft) 95,65 %
05.08.2016 09:38 15,7 C 16,7 C 16,1 C 95 % 1 lf 1016,4 hPa 0,0 l/m 0 min 0 min 129 W/m 12,6 km/h (3 Bft) 95,74 %
05.08.2016 09:40 15,7 C 17,2 C 16,1 C 95 % 1 lf 1016,4 hPa 0,0 l/m 0 min 0 min 156 W/m 16,7 km/h (3 Bft) 93,62 %
05.08.2016 09:42 15,7 C 17,2 C 16,1 C 95 % 1 lf 1016,4 hPa 0,0 l/m 0 min 0 min 124 W/m 16,7 km/h (3 Bft) 95,74 %
05.08.2016 09:44 15,8 C 17,2 C 16,1 C 94 % 1 lf 1016,4 hPa 0,0 l/m 0 min 0 min 135 W/m 16,7 km/h (3 Bft) 95,74 %
05.08.2016 09:46 15,8 C 17,2 C 16,1 C 94 % 1 lf 1016,4 hPa 0,0 l/m 0 min 0 min 158 W/m 14,6 km/h (3 Bft) 93,62 %
05.08.2016 09:48 15,8 C 17,2 C 16,1 C 94 % 1 lf 1016,4 hPa 0,0 l/m 0 min 0 min 154 W/m 20,9 km/h (4 Bft) 95,65 %
05.08.2016 09:50 15,9 C 17,2 C 16,7 C 94 % 1 lf 1016,4 hPa 0,0 l/m 0 min 0 min 179 W/m 16,7 km/h (3 Bft) 95,74 %
05.08.2016 09:52 15,9 C 17,8 C 16,7 C 95 % 1 lf 1016,5 hPa 0,0 l/m 0 min 0 min 199 W/m 14,6 km/h (3 Bft) 93,62 %
05.08.2016 09:54 15,9 C 17,8 C 16,7 C 95 % 1 lf 1016,5 hPa 0,0 l/m 0 min 0 min 176 W/m 12,6 km/h (3 Bft) 93,62 %
05.08.2016 09:56 16,0 C 17,8 C 17,2 C 95 % 1 lf 1016,4 hPa 0,0 l/m 0 min 0 min 205 W/m 8,4 km/h (2 Bft) 97,87 %
05.08.2016 09:58 16,1 C 18,3 C 17,2 C 95 % 1 lf 1016,4 hPa 0,0 l/m 0 min 0 min 233 W/m 14,6 km/h (3 Bft) 97,83 %
05.08.2016 10:00 16,1 C 18,3 C 17,2 C 95 % 0 lf 1016,5 hPa 0,0 l/m 0 min 0 min 224 W/m 14,6 km/h (3 Bft) 95,74 %
05.08.2016 10:02 16,2 C 18,9 C 17,8 C 94 % 0 lf 1016,4 hPa 0,0 l/m 0 min 0 min 238 W/m 10,5 km/h (2 Bft) 97,87 %
05.08.2016 10:04 16,2 C 18,3 C 17,8 C 94 % 0 lf 1016,5 hPa 0,0 l/m 0 min 0 min 222 W/m 12,6 km/h (3 Bft) 97,87 %
05.08.2016 10:06 16,3 C 18,3 C 17,8 C 94 % 0 lf 1016,6 hPa 0,0 l/m 0 min 0 min 196 W/m 8,4 km/h (2 Bft) 95,74 %
05.08.2016 10:08 16,3 C 18,3 C 17,8 C 95 % 1 lf 1016,5 hPa 0,0 l/m 0 min 0 min 180 W/m 6,3 km/h (2 Bft) 93,62 %
05.08.2016 10:10 16,4 C 18,3 C 17,8 C 95 % 0 lf 1016,6 hPa 0,0 l/m 0 min 0 min 175 W/m 14,6 km/h (3 Bft) 97,83 %
05.08.2016 10:12 16,4 C 18,3 C 17,8 C 94 % 0 lf 1016,6 hPa 0,0 l/m 0 min 0 min 204 W/m 20,9 km/h (4 Bft) 95,74 %
05.08.2016 10:14 16,4 C 17,8 C 17,8 C 94 % 0 lf 1016,6 hPa 0,0 l/m 0 min 0 min 216 W/m 23,0 km/h (4 Bft) 95,74 %
05.08.2016 10:16 16,4 C 18,3 C 17,8 C 94 % 0 lf 1016,7 hPa 0,0 l/m 0 min 0 min 256 W/m 14,6 km/h (3 Bft) 97,87 %
05.08.2016 10:18 16,5 C 18,3 C 17,8 C 94 % 0 lf 1016,7 hPa 0,0 l/m 0 min 0 min 288 W/m 18,8 km/h (3 Bft) 95,74 %
05.08.2016 10:20 16,5 C 18,9 C 18,3 C 94 % 0 lf 1016,8 hPa 0,0 l/m 0 min 0 min 271 W/m 12,6 km/h (3 Bft) 97,87 %
05.08.2016 10:22 16,6 C 18,9 C 18,3 C 94 % 0 lf 1016,8 hPa 0,0 l/m 0 min 0 min 246 W/m 14,6 km/h (3 Bft) 97,83 %
05.08.2016 10:24 16,6 C 18,9 C 18,3 C 94 % 0 lf 1016,8 hPa 0,0 l/m 0 min 0 min 259 W/m 16,7 km/h (3 Bft) 95,74 %
05.08.2016 10:26 16,7 C 18,9 C 18,3 C 94 % 0 lf 1016,7 hPa 0,0 l/m 0 min 0 min 265 W/m 18,8 km/h (3 Bft) 100,00 %
05.08.2016 10:28 16,7 C 18,9 C 18,3 C 94 % 0 lf 1016,8 hPa 0,0 l/m 0 min 0 min 233 W/m 16,7 km/h (3 Bft) 100,00 %
05.08.2016 10:30 16,8 C 18,9 C 18,3 C 93 % 0 lf 1016,9 hPa 0,0 l/m 0 min 0 min 207 W/m 16,7 km/h (3 Bft) 95,74 %
05.08.2016 10:32 16,8 C 18,3 C 17,8 C 93 % 0 lf 1016,9 hPa 0,0 l/m 0 min 0 min 192 W/m 12,6 km/h (3 Bft) 97,87 %
05.08.2016 10:34 16,8 C 18,3 C 17,8 C 93 % 0 lf 1016,9 hPa 0,0 l/m 0 min 0 min 208 W/m 25,1 km/h (4 Bft) 95,65 %
05.08.2016 10:36 16,8 C 18,3 C 17,8 C 93 % 0 lf 1017,0 hPa 0,0 l/m 0 min 0 min 216 W/m 16,7 km/h (3 Bft) 93,62 %
05.08.2016 10:38 16,9 C 18,3 C 17,8 C 93 % 0 lf 1017,0 hPa 0,0 l/m 0 min 0 min 213 W/m 20,9 km/h (4 Bft) 91,49 %
05.08.2016 10:40 16,9 C 18,3 C 17,8 C 92 % 0 lf 1017,0 hPa 0,0 l/m 0 min 0 min 156 W/m 16,7 km/h (3 Bft) 95,74 %
05.08.2016 10:42 16,9 C 18,3 C 17,2 C 92 % 0 lf 1017,0 hPa 0,0 l/m 0 min 0 min 138 W/m 12,6 km/h (3 Bft) 95,74 %
05.08.2016 10:44 16,9 C 17,8 C 17,2 C 92 % 0 lf 1017,2 hPa 0,0 l/m 0 min 0 min 141 W/m 16,7 km/h (3 Bft) 95,74 %
05.08.2016 10:46 16,9 C 17,8 C 17,2 C 92 % 0 lf 1017,2 hPa 0,0 l/m 0 min 0 min 124 W/m 14,6 km/h (3 Bft) 93,48 %
05.08.2016 10:48 16,9 C 17,8 C 16,7 C 92 % 1 lf 1017,2 hPa 0,0 l/m 0 min 0 min 110 W/m 12,6 km/h (3 Bft) 95,74 %
05.08.2016 10:50 16,9 C 17,8 C 16,7 C 92 % 0 lf 1017,2 hPa 0,0 l/m 0 min 0 min 98 W/m 10,5 km/h (2 Bft) 95,74 %
05.08.2016 10:52 16,9 C 17,8 C 16,7 C 92 % 0 lf 1017,2 hPa 0,0 l/m 0 min 0 min 112 W/m 12,6 km/h (3 Bft) 93,62 %
05.08.2016 10:54 16,9 C 17,8 C 16,7 C 92 % 0 lf 1017,3 hPa 0,0 l/m 0 min 0 min 131 W/m 18,8 km/h (3 Bft) 95,74 %
05.08.2016 10:56 16,9 C 17,8 C 17,2 C 92 % 0 lf 1017,2 hPa 0,0 l/m 0 min 0 min 143 W/m 12,6 km/h (3 Bft) 95,74 %
05.08.2016 10:58 16,9 C 18,3 C 17,2 C 92 % 0 lf 1017,3 hPa 0,0 l/m 0 min 0 min 151 W/m 10,5 km/h (2 Bft) 91,30 %
05.08.2016 11:00 17,0 C 18,3 C 17,2 C 92 % 0 lf 1017,3 hPa 0,0 l/m 0 min 0 min 180 W/m 12,6 km/h (3 Bft) 93,62 %
05.08.2016 11:02 17,0 C 18,9 C 17,2 C 92 % 0 lf 1017,3 hPa 0,0 l/m 0 min 0 min 191 W/m 12,6 km/h (3 Bft) 91,49 %
05.08.2016 11:04 17,0 C 18,9 C 17,8 C 91 % 0 lf 1017,4 hPa 0,0 l/m 0 min 0 min 175 W/m 14,6 km/h (3 Bft) 93,62 %
05.08.2016 11:06 17,1 C 18,9 C 17,2 C 91 % 0 lf 1017,3 hPa 0,0 l/m 0 min 0 min 207 W/m 16,7 km/h (3 Bft) 95,74 %
05.08.2016 11:08 17,1 C 18,9 C 17,8 C 91 % 0 lf 1017,3 hPa 0,0 l/m 0 min 0 min 231 W/m 20,9 km/h (4 Bft) 95,65 %
05.08.2016 11:10 17,1 C 19,4 C 18,3 C 91 % 0 lf 1017,3 hPa 0,0 l/m 0 min 0 min 325 W/m 16,7 km/h (3 Bft) 95,74 %
05.08.2016 11:12 17,2 C 20,6 C 18,9 C 91 % 0 lf 1017,3 hPa 0,0 l/m 2 min 0 min 398 W/m 16,7 km/h (3 Bft) 93,62 %
05.08.2016 11:14 17,2 C 21,1 C 19,4 C 92 % 0 lf 1017,3 hPa 0,0 l/m 2 min 0 min 416 W/m 14,6 km/h (3 Bft) 95,74 %
05.08.2016 11:16 17,3 C 22,2 C 20,0 C 92 % 0 lf 1017,3 hPa 0,0 l/m 2 min 0 min 528 W/m 14,6 km/h (3 Bft) 91,49 %
05.08.2016 11:18 17,4 C 22,8 C 20,6 C 92 % 0 lf 1017,4 hPa 0,0 l/m 2 min 0 min 520 W/m 20,9 km/h (4 Bft) 95,74 %
05.08.2016 11:20 17,5 C 21,7 C 20,6 C 92 % 0 lf 1017,3 hPa 0,0 l/m 0 min 0 min 328 W/m 12,6 km/h (3 Bft) 97,87 %
05.08.2016 11:22 17,6 C 21,1 C 20,0 C 92 % 0 lf 1017,4 hPa 0,0 l/m 0 min 0 min 322 W/m 18,8 km/h (3 Bft) 97,83 %
05.08.2016 11:24 17,7 C 20,6 C 20,0 C 91 % 0 lf 1017,4 hPa 0,0 l/m 0 min 0 min 283 W/m 18,8 km/h (3 Bft) 97,87 %
05.08.2016 11:26 17,7 C 20,6 C 19,4 C 91 % 0 lf 1017,4 hPa 0,0 l/m 0 min 0 min 290 W/m 23,0 km/h (4 Bft) 95,74 %
05.08.2016 11:28 17,7 C 20,0 C 20,0 C 91 % 0 lf 1017,4 hPa 0,0 l/m 2 min 0 min 389 W/m 14,6 km/h (3 Bft) 95,74 %
05.08.2016 11:30 17,8 C 20,6 C 20,6 C 90 % 0 lf 1017,3 hPa 0,0 l/m 2 min 0 min 412 W/m 10,5 km/h (2 Bft) 97,87 %
05.08.2016 11:32 17,9 C 22,2 C 21,1 C 91 % 0 lf 1017,4 hPa 0,0 l/m 2 min 0 min 477 W/m 16,7 km/h (3 Bft) 93,48 %
05.08.2016 11:34 17,9 C 21,1 C 20,6 C 91 % 0 lf 1017,3 hPa 0,0 l/m 2 min 0 min 398 W/m 18,8 km/h (3 Bft) 97,87 %
05.08.2016 11:36 17,9 C 20,6 C 20,0 C 90 % 0 lf 1017,4 hPa 0,0 l/m 0 min 0 min 264 W/m 18,8 km/h (3 Bft) 95,74 %
05.08.2016 11:38 17,9 C 20,0 C 18,9 C 89 % 0 lf 1017,4 hPa 0,0 l/m 0 min 0 min 174 W/m 23,0 km/h (4 Bft) 97,87 %
05.08.2016 11:40 17,9 C 18,9 C 18,3 C 89 % 0 lf 1017,5 hPa 0,0 l/m 0 min 0 min 195 W/m 23,0 km/h (4 Bft) 97,87 %
05.08.2016 11:42 17,9 C 20,0 C 18,9 C 89 % 0 lf 1017,6 hPa 0,0 l/m 0 min 0 min 287 W/m 16,7 km/h (3 Bft) 97,87 %
05.08.2016 11:44 18,0 C 20,0 C 19,4 C 89 % 0 lf 1017,5 hPa 0,0 l/m 0 min 0 min 331 W/m 14,6 km/h (3 Bft) 95,65 %
05.08.2016 11:46 18,1 C 21,7 C 20,6 C 89 % 0 lf 1017,5 hPa 0,0 l/m 2 min 0 min 396 W/m 16,7 km/h (3 Bft) 95,74 %
05.08.2016 11:48 18,1 C 22,2 C 21,1 C 89 % 0 lf 1017,5 hPa 0,0 l/m 2 min 0 min 411 W/m 14,6 km/h (3 Bft) 95,74 %
05.08.2016 11:50 18,2 C 21,7 C 20,6 C 89 % 0 lf 1017,5 hPa 0,0 l/m 0 min 0 min 248 W/m 18,8 km/h (3 Bft) 95,74 %
05.08.2016 11:52 18,2 C 21,1 C 20,0 C 89 % 0 lf 1017,5 hPa 0,0 l/m 0 min 0 min 272 W/m 16,7 km/h (3 Bft) 95,74 %
05.08.2016 11:54 18,2 C 21,7 C 20,0 C 88 % 0 lf 1017,4 hPa 0,0 l/m 0 min 0 min 334 W/m 20,9 km/h (4 Bft) 97,87 %
05.08.2016 11:56 18,3 C 21,1 C 20,0 C 88 % 0 lf 1017,6 hPa 0,0 l/m 0 min 0 min 332 W/m 16,7 km/h (3 Bft) 97,83 %
05.08.2016 11:58 18,3 C 22,2 C 21,1 C 88 % 0 lf 1017,5 hPa 0,0 l/m 2 min 0 min 387 W/m 12,6 km/h (3 Bft) 95,74 %
05.08.2016 12:00 18,4 C 21,1 C 20,6 C 88 % 0 lf 1017,6 hPa 0,0 l/m 0 min 0 min 365 W/m 14,6 km/h (3 Bft) 100,00 %
05.08.2016 12:02 18,4 C 21,1 C 20,6 C 88 % 0 lf 1017,6 hPa 0,0 l/m 0 min 0 min 342 W/m 12,6 km/h (3 Bft) 97,87 %
05.08.2016 12:04 18,5 C 22,2 C 21,1 C 88 % 0 lf 1017,7 hPa 0,0 l/m 2 min 0 min 446 W/m 14,6 km/h (3 Bft) 97,92 %
05.08.2016 12:06 18,6 C 22,8 C 21,1 C 88 % 0 lf 1017,7 hPa 0,0 l/m 2 min 0 min 422 W/m 12,6 km/h (3 Bft) 100,00 %
05.08.2016 12:08 18,7 C 22,8 C 21,1 C 88 % 0 lf 1017,7 hPa 0,0 l/m 0 min 0 min 323 W/m 12,6 km/h (3 Bft) 100,00 %
05.08.2016 12:10 18,7 C 22,8 C 20,6 C 87 % 0 lf 1017,7 hPa 0,0 l/m 0 min 0 min 271 W/m 12,6 km/h (3 Bft) 100,00 %
05.08.2016 12:12 18,8 C 22,2 C 20,6 C 87 % 0 lf 1017,8 hPa 0,0 l/m 0 min 0 min 273 W/m 14,6 km/h (3 Bft) 100,00 %
05.08.2016 12:14 18,8 C 22,2 C 20,6 C 87 % 0 lf 1017,8 hPa 0,0 l/m 0 min 0 min 269 W/m 10,5 km/h (2 Bft) 95,74 %
05.08.2016 12:16 18,9 C 22,2 C 20,6 C 87 % 0 lf 1017,8 hPa 0,0 l/m 0 min 0 min 241 W/m 10,5 km/h (2 Bft) 97,87 %
05.08.2016 12:18 18,9 C 22,2 C 20,0 C 87 % 0 lf 1017,8 hPa 0,0 l/m 0 min 0 min 226 W/m 14,6 km/h (3 Bft) 97,87 %
05.08.2016 12:20 18,9 C 21,1 C 20,0 C 87 % 0 lf 1017,8 hPa 0,0 l/m 0 min 0 min 169 W/m 4,2 km/h (1 Bft) 100,00 %
05.08.2016 12:22 18,9 C 21,1 C 19,4 C 87 % 0 lf 1017,8 hPa 0,0 l/m 0 min 0 min 144 W/m 12,6 km/h (3 Bft) 100,00 %
05.08.2016 12:24 19,0 C 21,1 C 19,4 C 87 % 0 lf 1017,8 hPa 0,0 l/m 0 min 0 min 183 W/m 12,6 km/h (3 Bft) 100,00 %
05.08.2016 12:26 19,0 C 21,1 C 19,4 C 86 % 0 lf 1017,8 hPa 0,0 l/m 0 min 0 min 252 W/m 8,4 km/h (2 Bft) 97,87 %
05.08.2016 12:28 19,0 C 21,7 C 20,0 C 86 % 0 lf 1017,9 hPa 0,0 l/m 0 min 0 min 320 W/m 6,3 km/h (2 Bft) 97,87 %
05.08.2016 12:30 19,1 C 24,4 C 21,7 C 87 % 0 lf 1017,9 hPa 0,0 l/m 0 min 0 min 350 W/m 12,6 km/h (3 Bft) 100,00 %
05.08.2016 12:32 19,2 C 26,1 C 22,8 C 87 % 0 lf 1017,9 hPa 0,0 l/m 0 min 0 min 350 W/m 8,4 km/h (2 Bft) 100,00 %
05.08.2016 12:34 19,3 C 25,6 C 22,8 C 87 % 0 lf 1017,8 hPa 0,0 l/m 0 min 0 min 350 W/m 14,6 km/h (3 Bft) 97,87 %
05.08.2016 12:36 19,4 C 27,2 C 23,3 C 87 % 0 lf 1017,8 hPa 0,0 l/m 2 min 0 min 637 W/m 8,4 km/h (2 Bft) 95,74 %
05.08.2016 12:38 19,5 C 26,7 C 22,8 C 87 % 0 lf 1017,8 hPa 0,0 l/m 2 min 0 min 572 W/m 14,6 km/h (3 Bft) 97,87 %
05.08.2016 12:40 19,6 C 26,1 C 22,2 C 85 % 0 lf 1017,8 hPa 0,0 l/m 0 min 0 min 358 W/m 16,7 km/h (3 Bft) 93,62 %
05.08.2016 12:42 19,7 C 26,7 C 22,2 C 85 % 0 lf 1017,9 hPa 0,0 l/m 0 min 0 min 371 W/m 12,6 km/h (3 Bft) 93,48 %
05.08.2016 12:44 19,7 C 26,1 C 22,2 C 84 % 0 lf 1017,9 hPa 0,0 l/m 2 min 0 min 490 W/m 16,7 km/h (3 Bft) 93,62 %
05.08.2016 12:46 19,8 C 26,1 C 22,2 C 83 % 0 lf 1017,9 hPa 0,0 l/m 2 min 0 min 969 W/m 25,1 km/h (4 Bft) 93,62 %
05.08.2016 12:48 19,9 C 27,2 C 22,8 C 82 % 0 lf 1017,9 hPa 0,0 l/m 2 min 0 min 961 W/m 18,8 km/h (3 Bft) 95,74 %
05.08.2016 12:50 20,1 C 28,3 C 22,8 C 82 % 0 lf 1017,8 hPa 0,0 l/m 2 min 0 min 948 W/m 16,7 km/h (3 Bft) 95,74 %
05.08.2016 12:52 20,3 C 29,4 C 23,3 C 83 % 0 lf 1017,8 hPa 0,0 l/m 2 min 0 min 942 W/m 10,5 km/h (2 Bft) 95,74 %
05.08.2016 12:54 20,4 C 30,0 C 23,3 C 82 % 0 lf 1017,8 hPa 0,0 l/m 2 min 0 min 942 W/m 14,6 km/h (3 Bft) 95,65 %
05.08.2016 12:56 20,7 C 27,8 C 23,9 C 83 % 0 lf 1017,8 hPa 0,0 l/m 2 min 0 min 942 W/m 18,8 km/h (3 Bft) 95,74 %
05.08.2016 12:58 20,8 C 27,8 C 23,3 C 81 % 0 lf 1017,8 hPa 0,0 l/m 2 min 0 min 942 W/m 18,8 km/h (3 Bft) 91,49 %
05.08.2016 13:00 20,9 C 28,3 C 23,3 C 81 % 0 lf 1017,7 hPa 0,0 l/m 2 min 0 min 982 W/m 12,6 km/h (3 Bft) 93,62 %
05.08.2016 13:02 21,1 C 29,4 C 23,3 C 80 % 0 lf 1017,8 hPa 0,0 l/m 2 min 0 min 756 W/m 12,6 km/h (3 Bft) 93,62 %
05.08.2016 13:04 21,2 C 31,1 C 23,9 C 79 % 0 lf 1017,8 hPa 0,0 l/m 2 min 0 min 903 W/m 12,6 km/h (3 Bft) 95,74 %
05.08.2016 13:06 21,3 C 30,0 C 23,9 C 78 % 0 lf 1017,8 hPa 0,0 l/m 2 min 0 min 919 W/m 12,6 km/h (3 Bft) 95,65 %
05.08.2016 13:08 21,4 C 28,9 C 23,3 C 78 % 0 lf 1017,8 hPa 0,0 l/m 2 min 0 min 563 W/m 12,6 km/h (3 Bft) 95,74 %
05.08.2016 13:10 21,4 C 27,8 C 23,3 C 77 % 0 lf 1017,8 hPa 0,0 l/m 0 min 0 min 329 W/m 10,5 km/h (2 Bft) 91,49 %
05.08.2016 13:12 21,5 C 27,2 C 22,8 C 77 % 0 lf 1017,8 hPa 0,0 l/m 0 min 0 min 316 W/m 10,5 km/h (2 Bft) 91,49 %
05.08.2016 13:14 21,5 C 28,9 C 23,3 C 77 % 0 lf 1017,8 hPa 0,0 l/m 2 min 0 min 565 W/m 8,4 km/h (2 Bft) 94,74 %
05.08.2016 13:16 21,6 C 27,8 C 23,3 C 77 % 0 lf 1017,8 hPa 0,0 l/m 2 min 0 min 1055 W/m 8,4 km/h (2 Bft) 93,62 %
05.08.2016 13:18 21,6 C 27,8 C 23,3 C 77 % 0 lf 1017,8 hPa 0,0 l/m 2 min 0 min 669 W/m 10,5 km/h (2 Bft) 93,62 %
05.08.2016 13:20 21,6 C 26,1 C 22,8 C 76 % 0 lf 1017,9 hPa 0,0 l/m 0 min 0 min 259 W/m 12,6 km/h (3 Bft) 95,65 %
05.08.2016 13:22 21,6 C 25,6 C 22,2 C 75 % 0 lf 1017,9 hPa 0,0 l/m 0 min 0 min 238 W/m 23,0 km/h (4 Bft) 95,74 %
05.08.2016 13:24 21,6 C 25,0 C 21,7 C 74 % 0 lf 1017,9 hPa 0,0 l/m 0 min 0 min 264 W/m 14,6 km/h (3 Bft) 93,62 %
05.08.2016 13:26 21,6 C 26,7 C 22,2 C 74 % 0 lf 1017,8 hPa 0,0 l/m 0 min 0 min 279 W/m 12,6 km/h (3 Bft) 95,74 %
05.08.2016 13:28 21,6 C 26,1 C 22,8 C 74 % 0 lf 1017,8 hPa 0,0 l/m 0 min 0 min 304 W/m 8,4 km/h (2 Bft) 95,74 %
05.08.2016 13:30 21,6 C 26,7 C 22,8 C 74 % 0 lf 1017,8 hPa 0,0 l/m 0 min 0 min 336 W/m 12,6 km/h (3 Bft) 93,62 %
05.08.2016 13:32 21,6 C 27,8 C 22,8 C 75 % 0 lf 1017,8 hPa 0,0 l/m 2 min 0 min 537 W/m 14,6 km/h (3 Bft) 95,65 %
05.08.2016 13:34 21,7 C 27,8 C 23,3 C 75 % 0 lf 1017,8 hPa 0,0 l/m 2 min 0 min 1040 W/m 14,6 km/h (3 Bft) 93,62 %
05.08.2016 13:36 21,8 C 29,4 C 23,3 C 74 % 0 lf 1017,8 hPa 0,0 l/m 2 min 0 min 1034 W/m 18,8 km/h (3 Bft) 95,74 %
05.08.2016 13:38 21,9 C 28,3 C 23,9 C 73 % 0 lf 1017,8 hPa 0,0 l/m 2 min 0 min 1053 W/m 20,9 km/h (4 Bft) 87,23 %
05.08.2016 13:40 22,1 C 30,6 C 24,4 C 74 % 0 lf 1017,7 hPa 0,0 l/m 2 min 0 min 1060 W/m 12,6 km/h (3 Bft) 95,74 %
05.08.2016 13:42 22,2 C 29,4 C 24,4 C 74 % 0 lf 1017,7 hPa 0,0 l/m 2 min 0 min 445 W/m 20,9 km/h (4 Bft) 95,74 %
05.08.2016 13:44 22,3 C 30,6 C 24,4 C 73 % 0 lf 1017,8 hPa 0,0 l/m 2 min 0 min 476 W/m 25,1 km/h (4 Bft) 97,83 %
05.08.2016 13:46 22,4 C 31,1 C 25,0 C 73 % 15 lf 1017,8 hPa 0,0 l/m 2 min 0 min 862 W/m 25,1 km/h (4 Bft) 97,87 %
05.08.2016 13:48 22,5 C 30,6 C 25,0 C 72 % 15 lf 1017,7 hPa 0,0 l/m 2 min 0 min 1097 W/m 25,1 km/h (4 Bft) 95,74 %
05.08.2016 13:50 22,7 C 32,2 C 25,6 C 73 % 15 lf 1017,7 hPa 0,0 l/m 2 min 0 min 1061 W/m 25,1 km/h (4 Bft) 93,62 %
05.08.2016 13:52 22,8 C 30,0 C 25,6 C 72 % 15 lf 1017,7 hPa 0,0 l/m 2 min 0 min 1022 W/m 14,6 km/h (3 Bft) 95,74 %
05.08.2016 13:54 22,9 C 28,9 C 25,0 C 71 % 15 lf 1017,7 hPa 0,0 l/m 2 min 0 min 412 W/m 16,7 km/h (3 Bft) 97,83 %
05.08.2016 13:56 22,9 C 28,9 C 25,0 C 71 % 15 lf 1017,7 hPa 0,0 l/m 2 min 0 min 514 W/m 12,6 km/h (3 Bft) 97,87 %
05.08.2016 13:58 23,0 C 28,3 C 25,0 C 71 % 15 lf 1017,7 hPa 0,0 l/m 2 min 0 min 935 W/m 10,5 km/h (2 Bft) 100,00 %
05.08.2016 14:00 23,1 C 28,3 C 25,0 C 71 % 15 lf 1017,8 hPa 0,0 l/m 0 min 0 min 363 W/m 10,5 km/h (2 Bft) 97,87 %
05.08.2016 14:02 23,1 C 26,7 C 23,3 C 71 % 14 lf 1017,9 hPa 0,0 l/m 0 min 0 min 245 W/m 25,1 km/h (4 Bft) 97,87 %
05.08.2016 14:04 22,9 C 24,4 C 22,2 C 68 % 12 lf 1018,0 hPa 0,0 l/m 0 min 0 min 163 W/m 29,3 km/h (5 Bft) 97,87 %
05.08.2016 14:06 22,7 C 22,8 C 20,6 C 66 % 10 lf 1018,0 hPa 0,0 l/m 0 min 0 min 85 W/m 41,8 km/h (6 Bft) 93,48 %
05.08.2016 14:08 22,2 C 20,6 C 19,4 C 66 % 13 lf 1018,2 hPa 0,0 l/m 0 min 0 min 83 W/m 39,7 km/h (6 Bft) 100,00 %
05.08.2016 14:10 21,8 C 20,0 C 17,8 C 67 % 15 lf 1018,2 hPa 0,0 l/m 0 min 2 min 84 W/m 35,6 km/h (5 Bft) 97,87 %
05.08.2016 14:12 21,3 C 18,3 C 16,7 C 69 % 15 lf 1018,2 hPa 0,0 l/m 0 min 2 min 83 W/m 33,5 km/h (5 Bft) 97,87 %
05.08.2016 14:14 20,8 C 17,2 C 15,6 C 73 % 15 lf 1018,3 hPa 0,2 l/m 0 min 2 min 78 W/m 25,1 km/h (4 Bft) 100,00 %
05.08.2016 14:16 20,4 C 16,7 C 15,0 C 74 % 15 lf 1018,4 hPa 0,0 l/m 0 min 2 min 72 W/m 25,1 km/h (4 Bft) 97,87 %
05.08.2016 14:18 20,1 C 16,7 C 15,0 C 76 % 15 lf 1018,4 hPa 0,0 l/m 0 min 2 min 72 W/m 23,0 km/h (4 Bft) 93,48 %
05.08.2016 14:20 19,7 C 16,1 C 15,0 C 77 % 15 lf 1018,4 hPa 0,0 l/m 0 min 2 min 78 W/m 25,1 km/h (4 Bft) 97,87 %
05.08.2016 14:22 19,4 C 16,1 C 15,0 C 78 % 15 lf 1018,5 hPa 0,0 l/m 0 min 2 min 86 W/m 16,7 km/h (3 Bft) 97,87 %
05.08.2016 14:24 19,2 C 16,1 C 15,0 C 79 % 15 lf 1018,4 hPa 0,0 l/m 0 min 2 min 93 W/m 8,4 km/h (2 Bft) 97,87 %
05.08.2016 14:26 18,9 C 16,1 C 15,0 C 81 % 15 lf 1018,4 hPa 0,0 l/m 0 min 2 min 97 W/m 12,6 km/h (3 Bft) 95,74 %
05.08.2016 14:28 18,8 C 16,1 C 15,6 C 81 % 15 lf 1018,4 hPa 0,0 l/m 0 min 2 min 101 W/m 10,5 km/h (2 Bft) 95,74 %
05.08.2016 14:30 18,6 C 16,1 C 15,6 C 82 % 15 lf 1018,4 hPa 0,0 l/m 0 min 0 min 106 W/m 8,4 km/h (2 Bft) 97,83 %
05.08.2016 14:32 18,5 C 16,7 C 15,6 C 82 % 15 lf 1018,4 hPa 0,0 l/m 0 min 0 min 112 W/m 8,4 km/h (2 Bft) 97,87 %
05.08.2016 14:34 18,4 C 16,7 C 15,6 C 83 % 15 lf 1018,4 hPa 0,0 l/m 0 min 0 min 123 W/m 6,3 km/h (2 Bft) 95,74 %
05.08.2016 14:36 18,3 C 17,2 C 15,6 C 83 % 15 lf 1018,4 hPa 0,0 l/m 0 min 0 min 133 W/m 6,3 km/h (2 Bft) 97,87 %
05.08.2016 14:38 18,3 C 17,2 C 15,6 C 84 % 15 lf 1018,4 hPa 0,0 l/m 0 min 0 min 143 W/m 4,2 km/h (1 Bft) 97,87 %
05.08.2016 14:40 18,2 C 17,2 C 16,1 C 84 % 15 lf 1018,4 hPa 0,0 l/m 0 min 2 min 150 W/m 4,2 km/h (1 Bft) 97,87 %
05.08.2016 14:42 18,2 C 17,2 C 16,1 C 84 % 15 lf 1018,5 hPa 0,0 l/m 0 min 2 min 156 W/m 2,1 km/h (1 Bft) 97,83 %
05.08.2016 14:44 18,1 C 17,2 C 16,1 C 84 % 15 lf 1018,5 hPa 0,0 l/m 0 min 2 min 163 W/m 6,3 km/h (2 Bft) 95,74 %
05.08.2016 14:46 18,1 C 17,2 C 16,7 C 85 % 15 lf 1018,6 hPa 0,0 l/m 0 min 0 min 171 W/m 4,2 km/h (1 Bft) 97,87 %
05.08.2016 14:48 18,1 C 17,8 C 16,7 C 85 % 15 lf 1018,5 hPa 0,0 l/m 0 min 0 min 180 W/m 4,2 km/h (1 Bft) 91,49 %
05.08.2016 14:50 18,1 C 17,8 C 16,7 C 86 % 15 lf 1018,4 hPa 0,0 l/m 0 min 0 min 184 W/m 0,0 km/h (0 Bft) 95,74 %
05.08.2016 14:52 18,1 C 18,3 C 16,7 C 86 % 15 lf 1018,4 hPa 0,0 l/m 0 min 0 min 185 W/m 0,0 km/h (0 Bft) 95,74 %
05.08.2016 14:54 18,0 C 18,3 C 16,7 C 86 % 15 lf 1018,4 hPa 0,0 l/m 0 min 0 min 189 W/m 4,2 km/h (1 Bft) 91,30 %
05.08.2016 14:56 18,0 C 18,9 C 16,7 C 87 % 15 lf 1018,4 hPa 0,0 l/m 0 min 0 min 198 W/m 6,3 km/h (2 Bft) 95,74 %
05.08.2016 14:58 17,9 C 19,4 C 16,7 C 86 % 15 lf 1018,5 hPa 0,0 l/m 0 min 0 min 206 W/m 6,3 km/h (2 Bft) 93,62 %
05.08.2016 15:00 17,9 C 18,9 C 16,7 C 87 % 15 lf 1018,5 hPa 0,0 l/m 0 min 0 min 215 W/m 6,3 km/h (2 Bft) 93,62 %
05.08.2016 15:02 17,9 C 19,4 C 16,7 C 87 % 15 lf 1018,6 hPa 0,0 l/m 0 min 0 min 227 W/m 8,4 km/h (2 Bft) 95,74 %
05.08.2016 15:04 17,9 C 18,9 C 17,2 C 87 % 15 lf 1018,6 hPa 0,0 l/m 0 min 0 min 244 W/m 8,4 km/h (2 Bft) 95,74 %
05.08.2016 15:06 17,9 C 19,4 C 17,2 C 87 % 15 lf 1018,6 hPa 0,0 l/m 0 min 0 min 270 W/m 10,5 km/h (2 Bft) 93,48 %
05.08.2016 15:08 17,9 C 19,4 C 17,8 C 88 % 15 lf 1018,6 hPa 0,0 l/m 0 min 0 min 299 W/m 8,4 km/h (2 Bft) 95,74 %
05.08.2016 15:10 17,9 C 20,0 C 17,8 C 88 % 15 lf 1018,6 hPa 0,0 l/m 0 min 0 min 322 W/m 6,3 km/h (2 Bft) 95,74 %
05.08.2016 15:12 17,9 C 20,6 C 17,8 C 88 % 15 lf 1018,7 hPa 0,0 l/m 0 min 0 min 336 W/m 10,5 km/h (2 Bft) 97,87 %
05.08.2016 15:14 18,0 C 21,1 C 18,3 C 88 % 10 lf 1018,7 hPa 0,0 l/m 0 min 0 min 347 W/m 10,5 km/h (2 Bft) 95,74 %
05.08.2016 15:16 18,1 C 22,2 C 18,3 C 88 % 4 lf 1018,7 hPa 0,0 l/m 0 min 0 min 364 W/m 8,4 km/h (2 Bft) 95,74 %
05.08.2016 15:18 18,1 C 22,2 C 18,9 C 89 % 3 lf 1018,7 hPa 0,0 l/m 2 min 0 min 402 W/m 8,4 km/h (2 Bft) 97,83 %
05.08.2016 15:20 18,2 C 23,3 C 20,0 C 89 % 2 lf 1018,7 hPa 0,0 l/m 2 min 0 min 517 W/m 8,4 km/h (2 Bft) 95,74 %
05.08.2016 15:22 18,3 C 23,3 C 21,7 C 89 % 1 lf 1018,7 hPa 0,0 l/m 2 min 0 min 548 W/m 12,6 km/h (3 Bft) 100,00 %
05.08.2016 15:24 18,4 C 23,3 C 21,7 C 89 % 0 lf 1018,7 hPa 0,0 l/m 2 min 0 min 494 W/m 14,6 km/h (3 Bft) 100,00 %
05.08.2016 15:26 18,4 C 23,3 C 21,7 C 89 % 0 lf 1018,7 hPa 0,0 l/m 2 min 0 min 455 W/m 10,5 km/h (2 Bft) 100,00 %
05.08.2016 15:28 18,6 C 23,3 C 22,2 C 89 % 0 lf 1018,7 hPa 0,0 l/m 2 min 0 min 458 W/m 12,6 km/h (3 Bft) 95,74 %
05.08.2016 15:30 18,7 C 24,4 C 21,7 C 89 % 0 lf 1018,6 hPa 0,0 l/m 2 min 0 min 431 W/m 8,4 km/h (2 Bft) 100,00 %
05.08.2016 15:32 18,9 C 25,0 C 21,7 C 89 % 0 lf 1018,7 hPa 0,0 l/m 2 min 0 min 419 W/m 8,4 km/h (2 Bft) 97,87 %
05.08.2016 15:34 19,0 C 25,0 C 21,7 C 89 % 0 lf 1018,8 hPa 0,0 l/m 2 min 0 min 404 W/m 8,4 km/h (2 Bft) 100,00 %
05.08.2016 15:36 19,2 C 24,4 C 22,2 C 89 % 0 lf 1018,7 hPa 0,0 l/m 2 min 0 min 406 W/m 12,6 km/h (3 Bft) 97,87 %
05.08.2016 15:38 19,3 C 25,6 C 23,9 C 88 % 0 lf 1018,7 hPa 0,0 l/m 2 min 0 min 425 W/m 10,5 km/h (2 Bft) 100,00 %
05.08.2016 15:40 19,4 C 25,6 C 24,4 C 88 % 0 lf 1018,6 hPa 0,0 l/m 2 min 0 min 488 W/m 8,4 km/h (2 Bft) 97,87 %
05.08.2016 15:42 19,6 C 27,8 C 26,7 C 88 % 0 lf 1018,7 hPa 0,0 l/m 2 min 0 min 592 W/m 8,4 km/h (2 Bft) 97,83 %
05.08.2016 15:44 19,8 C 27,8 C 27,2 C 88 % 0 lf 1018,6 hPa 0,0 l/m 2 min 0 min 755 W/m 12,6 km/h (3 Bft) 100,00 %
05.08.2016 15:46 19,9 C 26,7 C 27,2 C 87 % 0 lf 1018,6 hPa 0,0 l/m 2 min 0 min 803 W/m 8,4 km/h (2 Bft) 100,00 %
05.08.2016 15:48 20,1 C 26,1 C 26,7 C 86 % 0 lf 1018,6 hPa 0,0 l/m 2 min 0 min 440 W/m 10,5 km/h (2 Bft) 100,00 %
05.08.2016 15:50 20,3 C 25,6 C 25,0 C 85 % 0 lf 1018,6 hPa 0,0 l/m 0 min 0 min 259 W/m 8,4 km/h (2 Bft) 100,00 %
05.08.2016 15:52 20,4 C 25,0 C 23,9 C 84 % 0 lf 1018,6 hPa 0,0 l/m 0 min 0 min 266 W/m 10,5 km/h (2 Bft) 97,83 %
05.08.2016 15:54 20,5 C 24,4 C 23,9 C 84 % 0 lf 1018,6 hPa 0,0 l/m 0 min 0 min 255 W/m 6,3 km/h (2 Bft) 95,74 %
05.08.2016 15:56 20,6 C 24,4 C 23,3 C 84 % 0 lf 1018,6 hPa 0,0 l/m 0 min 0 min 252 W/m 6,3 km/h (2 Bft) 93,62 %
05.08.2016 15:58 20,6 C 23,3 C 22,8 C 84 % 0 lf 1018,6 hPa 0,0 l/m 0 min 0 min 202 W/m 6,3 km/h (2 Bft) 95,74 %
05.08.2016 16:00 20,7 C 23,3 C 22,2 C 83 % 0 lf 1018,6 hPa 0,0 l/m 0 min 0 min 166 W/m 6,3 km/h (2 Bft) 95,74 %
05.08.2016 16:02 20,7 C 22,8 C 21,7 C 83 % 0 lf 1018,6 hPa 0,0 l/m 0 min 0 min 142 W/m 8,4 km/h (2 Bft) 95,74 %
05.08.2016 16:04 20,7 C 22,8 C 21,7 C 82 % 0 lf 1018,6 hPa 0,0 l/m 0 min 0 min 147 W/m 14,6 km/h (3 Bft) 95,65 %
05.08.2016 16:06 20,8 C 22,2 C 21,1 C 82 % 0 lf 1018,7 hPa 0,0 l/m 0 min 0 min 152 W/m 14,6 km/h (3 Bft) 95,74 %
05.08.2016 16:08 20,8 C 21,7 C 21,1 C 82 % 0 lf 1018,6 hPa 0,0 l/m 0 min 0 min 138 W/m 6,3 km/h (2 Bft) 95,74 %
05.08.2016 16:10 20,8 C 21,1 C 20,6 C 82 % 0 lf 1018,6 hPa 0,0 l/m 0 min 0 min 124 W/m 8,4 km/h (2 Bft) 91,49 %
05.08.2016 16:12 20,8 C 21,1 C 20,6 C 82 % 0 lf 1018,6 hPa 0,0 l/m 0 min 0 min 118 W/m 6,3 km/h (2 Bft) 91,49 %
05.08.2016 16:14 20,9 C 21,1 C 20,0 C 82 % 0 lf 1018,6 hPa 0,0 l/m 0 min 0 min 104 W/m 8,4 km/h (2 Bft) 95,74 %
05.08.2016 16:16 20,9 C 21,1 C 20,0 C 82 % 0 lf 1018,6 hPa 0,0 l/m 0 min 0 min 89 W/m 6,3 km/h (2 Bft) 95,65 %
05.08.2016 16:18 20,9 C 21,1 C 20,0 C 82 % 0 lf 1018,6 hPa 0,0 l/m 0 min 0 min 94 W/m 6,3 km/h (2 Bft) 95,74 %
05.08.2016 16:20 20,8 C 21,1 C 20,0 C 82 % 0 lf 1018,6 hPa 0,0 l/m 0 min 0 min 104 W/m 6,3 km/h (2 Bft) 95,74 %
05.08.2016 16:22 20,8 C 21,1 C 20,0 C 82 % 0 lf 1018,6 hPa 0,0 l/m 0 min 0 min 118 W/m 6,3 km/h (2 Bft) 93,62 %
05.08.2016 16:24 20,8 C 21,7 C 20,0 C 82 % 0 lf 1018,7 hPa 0,0 l/m 0 min 0 min 128 W/m 6,3 km/h (2 Bft) 93,62 %
05.08.2016 16:26 20,8 C 21,7 C 20,0 C 82 % 0 lf 1018,6 hPa 0,0 l/m 0 min 0 min 127 W/m 6,3 km/h (2 Bft) 93,62 %
05.08.2016 16:28 20,8 C 21,7 C 20,0 C 82 % 0 lf 1018,6 hPa 0,0 l/m 0 min 0 min 113 W/m 6,3 km/h (2 Bft) 93,48 %
05.08.2016 16:30 20,8 C 21,7 C 19,4 C 82 % 0 lf 1018,7 hPa 0,0 l/m 0 min 0 min 100 W/m 2,1 km/h (1 Bft) 95,74 %
05.08.2016 16:32 20,8 C 21,7 C 19,4 C 82 % 0 lf 1018,6 hPa 0,0 l/m 0 min 0 min 94 W/m 0,0 km/h (0 Bft) 93,62 %
05.08.2016 16:34 20,8 C 21,7 C 19,4 C 82 % 0 lf 1018,7 hPa 0,0 l/m 0 min 0 min 97 W/m 0,0 km/h (0 Bft) 97,87 %
05.08.2016 16:36 20,8 C 21,7 C 19,4 C 82 % 0 lf 1018,7 hPa 0,0 l/m 0 min 0 min 112 W/m 0,0 km/h (0 Bft) 91,49 %
05.08.2016 16:38 20,7 C 21,7 C 19,4 C 82 % 0 lf 1018,7 hPa 0,0 l/m 0 min 0 min 137 W/m 4,2 km/h (1 Bft) 97,87 %
05.08.2016 16:40 20,7 C 21,7 C 20,0 C 82 % 0 lf 1018,7 hPa 0,0 l/m 0 min 0 min 143 W/m 8,4 km/h (2 Bft) 93,48 %
05.08.2016 16:42 20,7 C 21,1 C 19,4 C 82 % 0 lf 1018,7 hPa 0,0 l/m 0 min 0 min 105 W/m 8,4 km/h (2 Bft) 95,74 %
05.08.2016 16:44 20,7 C 21,1 C 19,4 C 82 % 0 lf 1018,6 hPa 0,0 l/m 0 min 0 min 68 W/m 12,6 km/h (3 Bft) 95,74 %
05.08.2016 16:46 20,7 C 21,1 C 18,9 C 82 % 0 lf 1018,7 hPa 0,0 l/m 0 min 0 min 51 W/m 8,4 km/h (2 Bft) 97,87 %
05.08.2016 16:48 20,6 C 20,6 C 18,3 C 82 % 15 lf 1019,1 hPa 0,0 l/m 0 min 2 min 39 W/m 37,7 km/h (5 Bft) 97,87 %
05.08.2016 16:50 20,3 C 19,4 C 16,7 C 78 % 15 lf 1019,1 hPa 0,0 l/m 0 min 2 min 33 W/m 29,3 km/h (5 Bft) 89,13 %
05.08.2016 16:52 20,2 C 19,4 C 15,6 C 79 % 15 lf 1019,1 hPa 0,2 l/m 0 min 2 min 30 W/m 18,8 km/h (3 Bft) 95,74 %
05.08.2016 16:54 20,1 C 18,9 C 15,0 C 79 % 15 lf 1019,0 hPa 0,4 l/m 0 min 2 min 33 W/m 10,5 km/h (2 Bft) 93,62 %
05.08.2016 16:56 20,0 C 17,8 C 15,0 C 80 % 15 lf 1018,9 hPa 0,6 l/m 0 min 2 min 40 W/m 10,5 km/h (2 Bft) 97,87 %
05.08.2016 16:58 19,9 C 17,2 C 15,0 C 81 % 15 lf 1018,9 hPa 0,0 l/m 0 min 2 min 50 W/m 8,4 km/h (2 Bft) 97,87 %
05.08.2016 17:00 19,8 C 17,2 C 15,6 C 81 % 15 lf 1018,9 hPa 0,2 l/m 0 min 2 min 75 W/m 6,3 km/h (2 Bft) 95,74 %
05.08.2016 17:02 19,7 C 17,8 C 15,6 C 82 % 15 lf 1018,9 hPa 0,0 l/m 0 min 2 min 128 W/m 4,2 km/h (1 Bft) 97,87 %
05.08.2016 17:04 19,6 C 18,3 C 16,7 C 83 % 15 lf 1018,8 hPa 0,0 l/m 0 min 0 min 214 W/m 4,2 km/h (1 Bft) 91,30 %
05.08.2016 17:06 19,6 C 18,9 C 17,2 C 84 % 15 lf 1018,9 hPa 0,0 l/m 0 min 0 min 237 W/m 6,3 km/h (2 Bft) 95,74 %
05.08.2016 17:08 19,6 C 19,4 C 17,2 C 85 % 15 lf 1019,0 hPa 0,0 l/m 0 min 0 min 261 W/m 4,2 km/h (1 Bft) 100,00 %
05.08.2016 17:10 19,5 C 19,4 C 17,2 C 85 % 15 lf 1018,9 hPa 0,0 l/m 2 min 0 min 298 W/m 6,3 km/h (2 Bft) 95,74 %
05.08.2016 17:12 19,4 C 20,0 C 17,8 C 86 % 15 lf 1018,9 hPa 0,0 l/m 2 min 0 min 306 W/m 2,1 km/h (1 Bft) 93,62 %
05.08.2016 17:14 19,4 C 20,6 C 17,8 C 87 % 15 lf 1018,9 hPa 0,0 l/m 2 min 0 min 297 W/m 4,2 km/h (1 Bft) 97,83 %
05.08.2016 17:16 19,4 C 20,0 C 17,2 C 87 % 15 lf 1018,9 hPa 0,0 l/m 0 min 0 min 260 W/m 4,2 km/h (1 Bft) 97,87 %
05.08.2016 17:18 19,3 C 20,0 C 17,8 C 87 % 15 lf 1018,9 hPa 0,0 l/m 0 min 0 min 257 W/m 4,2 km/h (1 Bft) 97,87 %
05.08.2016 17:20 19,3 C 21,7 C 18,3 C 87 % 15 lf 1018,9 hPa 0,0 l/m 2 min 0 min 304 W/m 4,2 km/h (1 Bft) 97,87 %
05.08.2016 17:22 19,3 C 21,1 C 18,3 C 88 % 15 lf 1019,1 hPa 0,0 l/m 2 min 0 min 279 W/m 10,5 km/h (2 Bft) 97,87 %
05.08.2016 17:24 19,3 C 21,1 C 18,3 C 88 % 15 lf 1019,1 hPa 0,0 l/m 0 min 0 min 240 W/m 4,2 km/h (1 Bft) 93,62 %
05.08.2016 17:26 19,3 C 20,6 C 18,3 C 88 % 15 lf 1019,1 hPa 0,0 l/m 0 min 0 min 248 W/m 4,2 km/h (1 Bft) 97,83 %
05.08.2016 17:28 19,3 C 21,1 C 17,8 C 88 % 15 lf 1019,0 hPa 0,0 l/m 0 min 0 min 246 W/m 10,5 km/h (2 Bft) 100,00 %
05.08.2016 17:30 19,3 C 22,2 C 18,3 C 88 % 15 lf 1019,0 hPa 0,0 l/m 0 min 0 min 214 W/m 6,3 km/h (2 Bft) 95,74 %
05.08.2016 17:32 19,3 C 22,8 C 18,3 C 88 % 15 lf 1019,0 hPa 0,0 l/m 2 min 0 min 449 W/m 4,2 km/h (1 Bft) 95,74 %
05.08.2016 17:34 19,3 C 24,4 C 18,3 C 89 % 15 lf 1018,9 hPa 0,0 l/m 2 min 0 min 489 W/m 12,6 km/h (3 Bft) 93,62 %
05.08.2016 17:36 19,3 C 25,0 C 18,3 C 89 % 15 lf 1018,8 hPa 0,0 l/m 2 min 0 min 479 W/m 8,4 km/h (2 Bft) 97,87 %
05.08.2016 17:38 19,4 C 25,6 C 18,9 C 89 % 15 lf 1018,8 hPa 0,0 l/m 2 min 0 min 459 W/m 8,4 km/h (2 Bft) 97,83 %
05.08.2016 17:40 19,5 C 24,4 C 18,9 C 90 % 15 lf 1018,8 hPa 0,0 l/m 2 min 0 min 319 W/m 10,5 km/h (2 Bft) 97,87 %
05.08.2016 17:42 19,6 C 23,9 C 18,9 C 90 % 15 lf 1018,8 hPa 0,0 l/m 2 min 0 min 437 W/m 12,6 km/h (3 Bft) 95,74 %
05.08.2016 17:44 19,7 C 22,8 C 18,3 C 89 % 15 lf 1018,9 hPa 0,0 l/m 0 min 0 min 190 W/m 18,8 km/h (3 Bft) 97,87 %
05.08.2016 17:46 19,7 C 22,2 C 18,3 C 88 % 14 lf 1019,0 hPa 0,0 l/m 0 min 0 min 194 W/m 18,8 km/h (3 Bft) 97,87 %
05.08.2016 17:48 19,7 C 21,7 C 18,3 C 87 % 10 lf 1018,9 hPa 0,0 l/m 0 min 0 min 191 W/m 14,6 km/h (3 Bft) 95,74 %
05.08.2016 17:50 19,8 C 21,7 C 18,3 C 87 % 3 lf 1018,9 hPa 0,0 l/m 0 min 0 min 198 W/m 14,6 km/h (3 Bft) 97,83 %
05.08.2016 17:52 19,8 C 21,7 C 18,3 C 86 % 0 lf 1019,0 hPa 0,0 l/m 2 min 0 min 243 W/m 20,9 km/h (4 Bft) 97,87 %
05.08.2016 17:54 19,8 C 22,2 C 18,9 C 86 % 0 lf 1019,0 hPa 0,0 l/m 2 min 0 min 305 W/m 14,6 km/h (3 Bft) 95,74 %
05.08.2016 17:56 19,9 C 22,2 C 18,9 C 85 % 0 lf 1019,0 hPa 0,0 l/m 2 min 0 min 367 W/m 14,6 km/h (3 Bft) 95,74 %
05.08.2016 17:58 19,9 C 22,2 C 18,9 C 85 % 0 lf 1019,0 hPa 0,0 l/m 2 min 0 min 246 W/m 23,0 km/h (4 Bft) 95,74 %
05.08.2016 18:00 19,9 C 21,7 C 18,9 C 85 % 0 lf 1019,0 hPa 0,0 l/m 0 min 0 min 224 W/m 20,9 km/h (4 Bft) 93,62 %
05.08.2016 18:02 19,9 C 21,7 C 18,9 C 84 % 0 lf 1019,0 hPa 0,0 l/m 0 min 0 min 217 W/m 16,7 km/h (3 Bft) 97,83 %
05.08.2016 18:04 20,0 C 21,7 C 18,9 C 84 % 0 lf 1019,1 hPa 0,0 l/m 2 min 0 min 228 W/m 16,7 km/h (3 Bft) 97,87 %
05.08.2016 18:06 20,1 C 22,2 C 19,4 C 84 % 0 lf 1019,1 hPa 0,0 l/m 2 min 0 min 288 W/m 16,7 km/h (3 Bft) 95,74 %
05.08.2016 18:08 20,1 C 22,2 C 19,4 C 84 % 0 lf 1019,1 hPa 0,0 l/m 2 min 0 min 515 W/m 16,7 km/h (3 Bft) 97,87 %
05.08.2016 18:10 20,2 C 22,8 C 19,4 C 84 % 0 lf 1019,1 hPa 0,0 l/m 2 min 0 min 476 W/m 18,8 km/h (3 Bft) 97,87 %
05.08.2016 18:12 20,2 C 22,2 C 18,9 C 84 % 0 lf 1019,0 hPa 0,0 l/m 2 min 0 min 469 W/m 20,9 km/h (4 Bft) 95,74 %
05.08.2016 18:14 20,2 C 21,7 C 18,9 C 83 % 0 lf 1019,0 hPa 0,0 l/m 2 min 0 min 225 W/m 16,7 km/h (3 Bft) 95,65 %
05.08.2016 18:16 20,2 C 21,1 C 18,3 C 83 % 0 lf 1019,0 hPa 0,0 l/m 0 min 0 min 133 W/m 18,8 km/h (3 Bft) 97,87 %
05.08.2016 18:18 20,2 C 21,1 C 18,3 C 83 % 0 lf 1019,1 hPa 0,0 l/m 0 min 0 min 122 W/m 14,6 km/h (3 Bft) 97,87 %
05.08.2016 18:20 20,2 C 21,1 C 18,3 C 83 % 0 lf 1019,1 hPa 0,0 l/m 0 min 0 min 134 W/m 12,6 km/h (3 Bft) 97,87 %
05.08.2016 18:22 20,2 C 21,1 C 18,3 C 83 % 0 lf 1019,2 hPa 0,0 l/m 0 min 0 min 148 W/m 10,5 km/h (2 Bft) 93,62 %
05.08.2016 18:24 20,2 C 21,1 C 18,9 C 83 % 0 lf 1019,2 hPa 0,0 l/m 2 min 0 min 232 W/m 14,6 km/h (3 Bft) 97,83 %
05.08.2016 18:26 20,2 C 21,1 C 18,9 C 83 % 0 lf 1019,2 hPa 0,0 l/m 2 min 0 min 454 W/m 12,6 km/h (3 Bft) 100,00 %
05.08.2016 18:28 20,2 C 21,7 C 19,4 C 83 % 0 lf 1019,2 hPa 0,0 l/m 2 min 0 min 475 W/m 10,5 km/h (2 Bft) 100,00 %
05.08.2016 18:30 20,3 C 22,2 C 19,4 C 83 % 0 lf 1019,1 hPa 0,0 l/m 2 min 0 min 451 W/m 14,6 km/h (3 Bft) 97,87 %
05.08.2016 18:32 20,3 C 22,2 C 19,4 C 83 % 0 lf 1019,2 hPa 0,0 l/m 2 min 0 min 416 W/m 14,6 km/h (3 Bft) 97,87 %
05.08.2016 18:34 20,3 C 21,7 C 18,9 C 83 % 0 lf 1019,1 hPa 0,0 l/m 2 min 0 min 378 W/m 14,6 km/h (3 Bft) 95,74 %
05.08.2016 18:36 20,3 C 21,7 C 18,9 C 83 % 0 lf 1019,1 hPa 0,0 l/m 2 min 0 min 351 W/m 14,6 km/h (3 Bft) 93,48 %
05.08.2016 18:38 20,3 C 22,2 C 18,9 C 83 % 0 lf 1019,0 hPa 0,0 l/m 2 min 0 min 352 W/m 12,6 km/h (3 Bft) 97,87 %
05.08.2016 18:40 20,4 C 21,7 C 18,3 C 83 % 0 lf 1019,1 hPa 0,0 l/m 2 min 0 min 349 W/m 18,8 km/h (3 Bft) 97,87 %
05.08.2016 18:42 20,4 C 21,7 C 18,3 C 82 % 0 lf 1019,1 hPa 0,0 l/m 2 min 0 min 342 W/m 18,8 km/h (3 Bft) 95,74 %
05.08.2016 18:44 20,4 C 21,7 C 18,3 C 82 % 0 lf 1019,0 hPa 0,0 l/m 2 min 0 min 332 W/m 16,7 km/h (3 Bft) 93,62 %
05.08.2016 18:46 20,4 C 21,7 C 18,3 C 82 % 0 lf 1019,0 hPa 0,0 l/m 2 min 0 min 329 W/m 16,7 km/h (3 Bft) 93,62 %
05.08.2016 18:48 20,4 C 21,7 C 18,3 C 81 % 0 lf 1019,0 hPa 0,0 l/m 2 min 0 min 323 W/m 16,7 km/h (3 Bft) 95,65 %
05.08.2016 18:50 20,4 C 21,1 C 18,9 C 81 % 0 lf 1019,1 hPa 0,0 l/m 2 min 0 min 312 W/m 18,8 km/h (3 Bft) 97,87 %
05.08.2016 18:52 20,4 C 21,7 C 18,9 C 81 % 0 lf 1019,1 hPa 0,0 l/m 2 min 0 min 312 W/m 18,8 km/h (3 Bft) 95,74 %
05.08.2016 18:54 20,4 C 21,7 C 18,9 C 81 % 0 lf 1019,0 hPa 0,0 l/m 2 min 0 min 311 W/m 16,7 km/h (3 Bft) 97,87 %
05.08.2016 18:56 20,4 C 21,1 C 18,9 C 80 % 0 lf 1019,1 hPa 0,0 l/m 2 min 0 min 307 W/m 18,8 km/h (3 Bft) 93,62 %
05.08.2016 18:58 20,4 C 21,1 C 18,9 C 80 % 0 lf 1019,1 hPa 0,0 l/m 2 min 0 min 272 W/m 20,9 km/h (4 Bft) 93,62 %
05.08.2016 19:00 20,4 C 21,1 C 18,9 C 80 % 0 lf 1019,1 hPa 0,0 l/m 0 min 0 min 138 W/m 23,0 km/h (4 Bft) 95,65 %
05.08.2016 19:02 20,4 C 21,1 C 18,9 C 80 % 0 lf 1019,1 hPa 0,0 l/m 2 min 0 min 210 W/m 14,6 km/h (3 Bft) 95,74 %
05.08.2016 19:04 20,4 C 21,1 C 18,9 C 80 % 0 lf 1019,1 hPa 0,0 l/m 2 min 0 min 274 W/m 8,4 km/h (2 Bft) 93,62 %
05.08.2016 19:06 20,4 C 21,1 C 18,9 C 80 % 0 lf 1019,2 hPa 0,0 l/m 2 min 0 min 193 W/m 14,6 km/h (3 Bft) 95,74 %
05.08.2016 19:08 20,4 C 21,1 C 18,9 C 80 % 0 lf 1019,3 hPa 0,0 l/m 2 min 0 min 227 W/m 12,6 km/h (3 Bft) 91,49 %
05.08.2016 19:10 20,4 C 21,1 C 18,9 C 81 % 0 lf 1019,4 hPa 0,0 l/m 2 min 0 min 236 W/m 16,7 km/h (3 Bft) 89,36 %
05.08.2016 19:12 20,4 C 20,6 C 18,9 C 81 % 0 lf 1019,4 hPa 0,0 l/m 0 min 0 min 134 W/m 18,8 km/h (3 Bft) 91,30 %
05.08.2016 19:14 20,4 C 20,6 C 18,9 C 81 % 0 lf 1019,4 hPa 0,0 l/m 2 min 0 min 226 W/m 18,8 km/h (3 Bft) 93,62 %
05.08.2016 19:16 20,4 C 20,6 C 18,3 C 81 % 0 lf 1019,4 hPa 0,0 l/m 2 min 0 min 187 W/m 14,6 km/h (3 Bft) 91,49 %
05.08.2016 19:18 20,3 C 21,1 C 18,9 C 81 % 0 lf 1019,4 hPa 0,0 l/m 2 min 0 min 188 W/m 12,6 km/h (3 Bft) 93,62 %
05.08.2016 19:20 20,3 C 21,1 C 18,9 C 81 % 0 lf 1019,4 hPa 0,0 l/m 2 min 0 min 236 W/m 6,3 km/h (2 Bft) 93,62 %
05.08.2016 19:22 20,3 C 21,1 C 18,9 C 82 % 0 lf 1019,4 hPa 0,0 l/m 2 min 0 min 176 W/m 10,5 km/h (2 Bft) 93,48 %
05.08.2016 19:24 20,3 C 21,1 C 18,9 C 82 % 0 lf 1019,4 hPa 0,0 l/m 2 min 0 min 172 W/m 12,6 km/h (3 Bft) 95,74 %
05.08.2016 19:26 20,3 C 21,1 C 18,9 C 82 % 0 lf 1019,5 hPa 0,0 l/m 2 min 0 min 239 W/m 10,5 km/h (2 Bft) 95,74 %
05.08.2016 19:28 20,3 C 21,1 C 19,4 C 82 % 0 lf 1019,5 hPa 0,0 l/m 2 min 0 min 248 W/m 10,5 km/h (2 Bft) 97,87 %
05.08.2016 19:30 20,3 C 21,1 C 19,4 C 82 % 0 lf 1019,5 hPa 0,0 l/m 2 min 0 min 242 W/m 12,6 km/h (3 Bft) 93,62 %
05.08.2016 19:32 20,3 C 21,1 C 19,4 C 82 % 0 lf 1019,5 hPa 0,0 l/m 2 min 0 min 202 W/m 18,8 km/h (3 Bft) 93,62 %
05.08.2016 19:34 20,3 C 21,1 C 18,9 C 82 % 0 lf 1019,6 hPa 0,0 l/m 2 min 0 min 190 W/m 10,5 km/h (2 Bft) 97,87 %
05.08.2016 19:36 20,3 C 21,1 C 18,9 C 82 % 0 lf 1019,6 hPa 0,0 l/m 2 min 0 min 152 W/m 12,6 km/h (3 Bft) 97,83 %
05.08.2016 19:38 20,3 C 21,1 C 18,9 C 82 % 0 lf 1019,6 hPa 0,0 l/m 2 min 0 min 114 W/m 12,6 km/h (3 Bft) 97,87 %
05.08.2016 19:40 20,3 C 21,1 C 18,9 C 82 % 0 lf 1019,7 hPa 0,0 l/m 2 min 0 min 112 W/m 12,6 km/h (3 Bft) 89,36 %
05.08.2016 19:42 20,3 C 21,1 C 18,9 C 82 % 0 lf 1019,7 hPa 0,0 l/m 0 min 0 min 98 W/m 16,7 km/h (3 Bft) 97,87 %
05.08.2016 19:44 20,3 C 20,6 C 18,9 C 82 % 0 lf 1019,7 hPa 0,0 l/m 0 min 0 min 90 W/m 12,6 km/h (3 Bft) 95,74 %
05.08.2016 19:46 20,3 C 20,6 C 18,3 C 82 % 0 lf 1019,7 hPa 0,0 l/m 0 min 0 min 70 W/m 12,6 km/h (3 Bft) 97,83 %
05.08.2016 19:48 20,3 C 20,6 C 18,3 C 82 % 0 lf 1019,7 hPa 0,0 l/m 0 min 0 min 65 W/m 16,7 km/h (3 Bft) 95,74 %
05.08.2016 19:50 20,3 C 20,0 C 18,3 C 82 % 0 lf 1019,8 hPa 0,0 l/m 0 min 0 min 69 W/m 10,5 km/h (2 Bft) 100,00 %
05.08.2016 19:52 20,2 C 20,0 C 18,3 C 82 % 0 lf 1019,9 hPa 0,0 l/m 0 min 0 min 74 W/m 10,5 km/h (2 Bft) 93,62 %
05.08.2016 19:54 20,2 C 20,0 C 18,3 C 82 % 0 lf 1019,8 hPa 0,0 l/m 0 min 0 min 77 W/m 10,5 km/h (2 Bft) 97,87 %
05.08.2016 19:56 20,2 C 20,0 C 18,3 C 82 % 0 lf 1019,8 hPa 0,0 l/m 0 min 0 min 83 W/m 10,5 km/h (2 Bft) 100,00 %
05.08.2016 19:58 20,2 C 20,0 C 18,3 C 82 % 0 lf 1019,8 hPa 0,0 l/m 0 min 0 min 85 W/m 12,6 km/h (3 Bft) 100,00 %
05.08.2016 20:00 20,2 C 20,0 C 18,3 C 82 % 0 lf 1019,9 hPa 0,0 l/m 0 min 0 min 77 W/m 8,4 km/h (2 Bft) 100,00 %
05.08.2016 20:02 20,1 C 20,0 C 18,3 C 82 % 0 lf 1019,9 hPa 0,0 l/m 2 min 0 min 83 W/m 8,4 km/h (2 Bft) 95,74 %
05.08.2016 20:04 20,1 C 20,0 C 18,3 C 82 % 0 lf 1019,7 hPa 0,0 l/m 0 min 0 min 72 W/m 8,4 km/h (2 Bft) 93,62 %
05.08.2016 20:06 20,1 C 20,0 C 18,3 C 82 % 0 lf 1019,7 hPa 0,0 l/m 0 min 0 min 74 W/m 8,4 km/h (2 Bft) 100,00 %
05.08.2016 20:08 20,1 C 20,0 C 17,8 C 82 % 0 lf 1019,8 hPa 0,0 l/m 2 min 0 min 79 W/m 10,5 km/h (2 Bft) 97,87 %
05.08.2016 20:10 20,1 C 20,0 C 17,8 C 83 % 0 lf 1019,8 hPa 0,0 l/m 0 min 0 min 63 W/m 10,5 km/h (2 Bft) 100,00 %
05.08.2016 20:12 20,1 C 19,4 C 17,8 C 83 % 0 lf 1019,8 hPa 0,0 l/m 0 min 0 min 45 W/m 10,5 km/h (2 Bft) 100,00 %
05.08.2016 20:14 20,0 C 19,4 C 17,2 C 83 % 0 lf 1019,9 hPa 0,0 l/m 0 min 0 min 42 W/m 6,3 km/h (2 Bft) 97,87 %
05.08.2016 20:16 20,0 C 19,4 C 17,2 C 83 % 0 lf 1019,9 hPa 0,0 l/m 0 min 0 min 43 W/m 6,3 km/h (2 Bft) 97,87 %
05.08.2016 20:18 20,0 C 19,4 C 17,2 C 83 % 0 lf 1019,9 hPa 0,0 l/m 0 min 0 min 41 W/m 8,4 km/h (2 Bft) 95,74 %
05.08.2016 20:20 19,9 C 19,4 C 17,2 C 83 % 0 lf 1020,0 hPa 0,0 l/m 0 min 0 min 40 W/m 8,4 km/h (2 Bft) 95,74 %
05.08.2016 20:22 19,9 C 18,9 C 17,2 C 83 % 0 lf 1020,0 hPa 0,0 l/m 0 min 0 min 42 W/m 8,4 km/h (2 Bft) 100,00 %
05.08.2016 20:24 19,9 C 18,9 C 17,2 C 83 % 0 lf 1020,0 hPa 0,0 l/m 0 min 0 min 40 W/m 6,3 km/h (2 Bft) 100,00 %
05.08.2016 20:26 19,9 C 18,9 C 17,2 C 83 % 0 lf 1020,1 hPa 0,0 l/m 0 min 0 min 35 W/m 6,3 km/h (2 Bft) 97,87 %
05.08.2016 20:28 19,8 C 18,9 C 16,7 C 83 % 0 lf 1020,0 hPa 0,0 l/m 0 min 0 min 28 W/m 6,3 km/h (2 Bft) 100,00 %
05.08.2016 20:30 19,8 C 18,9 C 16,7 C 83 % 0 lf 1020,1 hPa 0,0 l/m 0 min 0 min 23 W/m 10,5 km/h (2 Bft) 100,00 %
05.08.2016 20:32 19,8 C 18,9 C 16,7 C 84 % 0 lf 1020,1 hPa 0,0 l/m 0 min 0 min 21 W/m 4,2 km/h (1 Bft) 97,87 %
05.08.2016 20:34 19,7 C 18,9 C 16,7 C 84 % 1 lf 1020,2 hPa 0,0 l/m 0 min 0 min 21 W/m 6,3 km/h (2 Bft) 97,83 %
05.08.2016 20:36 19,7 C 18,3 C 16,7 C 84 % 1 lf 1020,2 hPa 0,0 l/m 0 min 0 min 20 W/m 8,4 km/h (2 Bft) 95,74 %
05.08.2016 20:38 19,7 C 18,3 C 16,7 C 84 % 1 lf 1020,2 hPa 0,0 l/m 0 min 0 min 19 W/m 8,4 km/h (2 Bft) 100,00 %
05.08.2016 20:40 19,7 C 18,3 C 16,1 C 84 % 1 lf 1020,1 hPa 0,0 l/m 0 min 0 min 18 W/m 6,3 km/h (2 Bft) 97,87 %
05.08.2016 20:42 19,6 C 18,3 C 16,1 C 84 % 1 lf 1020,2 hPa 0,0 l/m 0 min 0 min 18 W/m 6,3 km/h (2 Bft) 97,87 %
05.08.2016 20:44 19,6 C 18,3 C 16,1 C 84 % 1 lf 1020,2 hPa 0,0 l/m 0 min 0 min 18 W/m 6,3 km/h (2 Bft) 97,87 %
05.08.2016 20:46 19,5 C 17,8 C 16,1 C 84 % 1 lf 1020,4 hPa 0,0 l/m 0 min 0 min 18 W/m 6,3 km/h (2 Bft) 97,83 %
05.08.2016 20:48 19,4 C 17,8 C 16,1 C 84 % 1 lf 1020,4 hPa 0,0 l/m 0 min 0 min 16 W/m 6,3 km/h (2 Bft) 97,87 %
05.08.2016 20:50 19,4 C 17,8 C 15,6 C 84 % 1 lf 1020,4 hPa 0,0 l/m 0 min 0 min 16 W/m 6,3 km/h (2 Bft) 97,87 %
05.08.2016 20:52 19,4 C 17,8 C 15,6 C 84 % 1 lf 1020,4 hPa 0,0 l/m 0 min 0 min 16 W/m 6,3 km/h (2 Bft) 100,00 %
05.08.2016 20:54 19,3 C 17,8 C 15,6 C 84 % 1 lf 1020,5 hPa 0,0 l/m 0 min 0 min 16 W/m 6,3 km/h (2 Bft) 98,00 %
05.08.2016 20:56 19,3 C 17,8 C 15,6 C 85 % 1 lf 1020,4 hPa 0,0 l/m 0 min 0 min 15 W/m 8,4 km/h (2 Bft) 95,65 %
05.08.2016 20:58 19,2 C 17,8 C 16,1 C 85 % 1 lf 1020,5 hPa 0,0 l/m 0 min 0 min 14 W/m 8,4 km/h (2 Bft) 97,87 %
05.08.2016 21:00 19,2 C 17,2 C 16,1 C 85 % 1 lf 1020,5 hPa 0,0 l/m 0 min 0 min 13 W/m 4,2 km/h (1 Bft) 95,74 %
05.08.2016 21:02 19,1 C 17,2 C 15,6 C 85 % 1 lf 1020,5 hPa 0,0 l/m 0 min 0 min 12 W/m 6,3 km/h (2 Bft) 97,87 %
05.08.2016 21:04 19,1 C 17,2 C 15,6 C 85 % 1 lf 1020,5 hPa 0,0 l/m 0 min 0 min 12 W/m 6,3 km/h (2 Bft) 93,62 %
05.08.2016 21:06 19,0 C 17,2 C 15,6 C 86 % 1 lf 1020,6 hPa 0,0 l/m 0 min 0 min 12 W/m 4,2 km/h (1 Bft) 95,74 %
05.08.2016 21:08 18,9 C 17,2 C 15,6 C 86 % 1 lf 1020,5 hPa 0,0 l/m 0 min 0 min 11 W/m 4,2 km/h (1 Bft) 93,48 %
05.08.2016 21:10 18,9 C 17,2 C 15,6 C 86 % 1 lf 1020,5 hPa 0,0 l/m 0 min 0 min 11 W/m 4,2 km/h (1 Bft) 95,74 %
05.08.2016 21:12 18,8 C 17,2 C 15,0 C 86 % 1 lf 1020,6 hPa 0,0 l/m 0 min 0 min 11 W/m 4,2 km/h (1 Bft) 93,62 %
05.08.2016 21:14 18,8 C 16,7 C 15,0 C 86 % 1 lf 1020,6 hPa 0,0 l/m 0 min 0 min 9 W/m 4,2 km/h (1 Bft) 95,74 %
05.08.2016 21:16 18,7 C 16,7 C 15,0 C 86 % 1 lf 1020,6 hPa 0,0 l/m 0 min 0 min 9 W/m 4,2 km/h (1 Bft) 93,62 %
05.08.2016 21:18 18,7 C 16,7 C 15,0 C 86 % 1 lf 1020,6 hPa 0,0 l/m 0 min 0 min 9 W/m 6,3 km/h (2 Bft) 93,62 %
05.08.2016 21:20 18,7 C 16,7 C 15,0 C 86 % 1 lf 1020,6 hPa 0,0 l/m 0 min 0 min 8 W/m 6,3 km/h (2 Bft) 95,65 %
05.08.2016 21:22 18,6 C 16,7 C 15,0 C 86 % 1 lf 1020,6 hPa 0,0 l/m 0 min 0 min 7 W/m 4,2 km/h (1 Bft) 95,74 %
05.08.2016 21:24 18,6 C 16,7 C 15,0 C 86 % 1 lf 1020,6 hPa 0,0 l/m 0 min 0 min 7 W/m 6,3 km/h (2 Bft) 93,62 %
05.08.2016 21:26 18,5 C 16,7 C 15,0 C 87 % 2 lf 1020,7 hPa 0,0 l/m 0 min 0 min 7 W/m 6,3 km/h (2 Bft) 95,74 %
05.08.2016 21:28 18,4 C 16,7 C 14,4 C 87 % 2 lf 1020,7 hPa 0,0 l/m 0 min 0 min 7 W/m 6,3 km/h (2 Bft) 91,49 %
05.08.2016 21:30 18,4 C 16,7 C 14,4 C 87 % 2 lf 1020,7 hPa 0,0 l/m 0 min 0 min 0 W/m 4,2 km/h (1 Bft) 95,74 %
05.08.2016 21:32 18,4 C 16,7 C 14,4 C 87 % 2 lf 1020,7 hPa 0,0 l/m 0 min 0 min 0 W/m 6,3 km/h (2 Bft) 93,48 %
05.08.2016 21:34 18,3 C 16,7 C 14,4 C 87 % 2 lf 1020,7 hPa 0,0 l/m 0 min 0 min 5 W/m 6,3 km/h (2 Bft) 93,62 %
05.08.2016 21:36 18,3 C 16,7 C 14,4 C 87 % 2 lf 1020,7 hPa 0,0 l/m 0 min 0 min 5 W/m 6,3 km/h (2 Bft) 93,62 %
05.08.2016 21:38 18,2 C 16,1 C 14,4 C 87 % 2 lf 1020,7 hPa 0,0 l/m 0 min 0 min 5 W/m 4,2 km/h (1 Bft) 95,74 %
05.08.2016 21:40 18,2 C 16,1 C 14,4 C 87 % 2 lf 1020,8 hPa 0,0 l/m 0 min 0 min 5 W/m 4,2 km/h (1 Bft) 89,36 %
05.08.2016 21:42 18,1 C 16,1 C 14,4 C 87 % 2 lf 1020,9 hPa 0,0 l/m 0 min 0 min 5 W/m 2,1 km/h (1 Bft) 93,48 %
05.08.2016 21:44 18,1 C 16,1 C 14,4 C 87 % 2 lf 1021,0 hPa 0,0 l/m 0 min 0 min 5 W/m 4,2 km/h (1 Bft) 95,74 %
05.08.2016 21:46 18,0 C 16,1 C 14,4 C 87 % 2 lf 1021,0 hPa 0,0 l/m 0 min 0 min 5 W/m 8,4 km/h (2 Bft) 95,74 %
05.08.2016 21:48 18,0 C 16,1 C 14,4 C 87 % 2 lf 1021,0 hPa 0,0 l/m 0 min 0 min 5 W/m 6,3 km/h (2 Bft) 93,62 %
05.08.2016 21:50 17,9 C 16,1 C 14,4 C 88 % 2 lf 1021,0 hPa 0,0 l/m 0 min 0 min 5 W/m 2,1 km/h (1 Bft) 95,74 %
05.08.2016 21:52 17,9 C 16,1 C 14,4 C 88 % 2 lf 1021,0 hPa 0,0 l/m 0 min 0 min 5 W/m 0,0 km/h (0 Bft) 93,62 %
05.08.2016 21:54 17,8 C 16,1 C 14,4 C 88 % 2 lf 1021,0 hPa 0,0 l/m 0 min 0 min 5 W/m 0,0 km/h (0 Bft) 95,65 %
05.08.2016 21:56 17,8 C 16,1 C 14,4 C 88 % 3 lf 1021,0 hPa 0,0 l/m 0 min 0 min 5 W/m 0,0 km/h (0 Bft) 89,36 %
05.08.2016 21:58 17,8 C 16,1 C 14,4 C 88 % 3 lf 1021,0 hPa 0,0 l/m 0 min 0 min 5 W/m 0,0 km/h (0 Bft) 95,74 %
05.08.2016 22:00 17,7 C 16,1 C 14,4 C 88 % 3 lf 1021,1 hPa 0,0 l/m 0 min 0 min 5 W/m 0,0 km/h (0 Bft) 95,74 %
05.08.2016 22:02 17,7 C 16,1 C 14,4 C 88 % 3 lf 1021,0 hPa 0,0 l/m 0 min 0 min 5 W/m 0,0 km/h (0 Bft) 95,74 %
05.08.2016 22:04 17,7 C 16,1 C 14,4 C 88 % 3 lf 1021,1 hPa 0,0 l/m 0 min 0 min 5 W/m 6,3 km/h (2 Bft) 93,62 %
05.08.2016 22:06 17,6 C 16,1 C 14,4 C 88 % 3 lf 1021,0 hPa 0,0 l/m 0 min 0 min 5 W/m 6,3 km/h (2 Bft) 93,48 %
05.08.2016 22:08 17,6 C 16,1 C 14,4 C 89 % 3 lf 1021,1 hPa 0,0 l/m 0 min 0 min 5 W/m 6,3 km/h (2 Bft) 93,62 %
05.08.2016 22:10 17,5 C 16,1 C 14,4 C 89 % 3 lf 1021,1 hPa 0,0 l/m 0 min 0 min 5 W/m 2,1 km/h (1 Bft) 91,49 %
05.08.2016 22:12 17,4 C 16,1 C 14,4 C 89 % 3 lf 1021,2 hPa 0,0 l/m 0 min 0 min 5 W/m 4,2 km/h (1 Bft) 93,62 %
05.08.2016 22:14 17,4 C 15,6 C 14,4 C 89 % 3 lf 1021,2 hPa 0,0 l/m 0 min 0 min 5 W/m 4,2 km/h (1 Bft) 95,74 %
05.08.2016 22:16 17,4 C 15,6 C 14,4 C 89 % 3 lf 1021,2 hPa 0,0 l/m 0 min 0 min 5 W/m 0,0 km/h (0 Bft) 97,87 %
05.08.2016 22:18 17,3 C 15,6 C 13,9 C 89 % 3 lf 1021,2 hPa 0,0 l/m 0 min 0 min 5 W/m 4,2 km/h (1 Bft) 95,65 %
05.08.2016 22:20 17,3 C 15,6 C 14,4 C 89 % 3 lf 1021,2 hPa 0,0 l/m 0 min 0 min 5 W/m 6,3 km/h (2 Bft) 95,74 %
05.08.2016 22:22 17,3 C 15,6 C 14,4 C 89 % 3 lf 1021,2 hPa 0,0 l/m 0 min 0 min 5 W/m 6,3 km/h (2 Bft) 95,74 %
05.08.2016 22:24 17,2 C 15,6 C 14,4 C 89 % 3 lf 1021,2 hPa 0,0 l/m 0 min 0 min 5 W/m 6,3 km/h (2 Bft) 95,74 %
05.08.2016 22:26 17,2 C 16,1 C 14,4 C 89 % 3 lf 1021,2 hPa 0,0 l/m 0 min 0 min 5 W/m 4,2 km/h (1 Bft) 95,74 %
05.08.2016 22:28 17,2 C 15,6 C 14,4 C 90 % 3 lf 1021,2 hPa 0,0 l/m 0 min 0 min 5 W/m 2,1 km/h (1 Bft) 93,62 %
05.08.2016 22:30 17,1 C 15,6 C 14,4 C 90 % 3 lf 1021,2 hPa 0,0 l/m 0 min 0 min 5 W/m 4,2 km/h (1 Bft) 95,65 %
05.08.2016 22:32 17,1 C 15,6 C 14,4 C 90 % 3 lf 1021,2 hPa 0,0 l/m 0 min 0 min 5 W/m 4,2 km/h (1 Bft) 95,74 %
05.08.2016 22:34 17,1 C 15,6 C 14,4 C 90 % 3 lf 1021,3 hPa 0,0 l/m 0 min 0 min 5 W/m 6,3 km/h (2 Bft) 97,87 %
05.08.2016 22:36 17,1 C 15,6 C 14,4 C 90 % 3 lf 1021,3 hPa 0,0 l/m 0 min 0 min 5 W/m 6,3 km/h (2 Bft) 93,62 %
05.08.2016 22:38 17,0 C 15,6 C 14,4 C 90 % 3 lf 1021,3 hPa 0,0 l/m 0 min 0 min 5 W/m 8,4 km/h (2 Bft) 93,62 %
05.08.2016 22:40 17,0 C 16,1 C 14,4 C 90 % 3 lf 1021,3 hPa 0,0 l/m 0 min 0 min 5 W/m 6,3 km/h (2 Bft) 97,87 %
05.08.2016 22:42 16,9 C 16,1 C 14,4 C 90 % 3 lf 1021,3 hPa 0,0 l/m 0 min 0 min 5 W/m 8,4 km/h (2 Bft) 97,83 %
05.08.2016 22:44 16,9 C 16,1 C 14,4 C 91 % 3 lf 1021,4 hPa 0,0 l/m 0 min 0 min 5 W/m 10,5 km/h (2 Bft) 93,62 %
05.08.2016 22:46 16,9 C 16,1 C 14,4 C 91 % 2 lf 1021,4 hPa 0,0 l/m 0 min 0 min 5 W/m 8,4 km/h (2 Bft) 97,87 %
05.08.2016 22:48 16,9 C 16,1 C 14,4 C 91 % 2 lf 1021,4 hPa 0,0 l/m 0 min 0 min 5 W/m 10,5 km/h (2 Bft) 97,87 %
05.08.2016 22:50 16,9 C 16,1 C 14,4 C 91 % 2 lf 1021,4 hPa 0,0 l/m 0 min 0 min 5 W/m 10,5 km/h (2 Bft) 95,74 %
05.08.2016 22:52 16,8 C 16,1 C 14,4 C 91 % 2 lf 1021,5 hPa 0,0 l/m 0 min 0 min 5 W/m 6,3 km/h (2 Bft) 97,87 %
05.08.2016 22:54 16,8 C 16,1 C 14,4 C 91 % 2 lf 1021,5 hPa 0,0 l/m 0 min 0 min 5 W/m 8,4 km/h (2 Bft) 95,65 %
05.08.2016 22:56 16,8 C 16,1 C 14,4 C 91 % 2 lf 1021,6 hPa 0,0 l/m 0 min 0 min 5 W/m 4,2 km/h (1 Bft) 95,74 %
05.08.2016 22:58 16,7 C 15,6 C 14,4 C 92 % 2 lf 1021,6 hPa 0,0 l/m 0 min 0 min 5 W/m 6,3 km/h (2 Bft) 97,87 %
05.08.2016 23:00 16,7 C 15,6 C 14,4 C 91 % 2 lf 1021,6 hPa 0,0 l/m 0 min 0 min 5 W/m 6,3 km/h (2 Bft) 97,87 %
05.08.2016 23:02 16,7 C 16,1 C 14,4 C 91 % 2 lf 1021,6 hPa 0,0 l/m 0 min 0 min 5 W/m 8,4 km/h (2 Bft) 91,49 %
05.08.2016 23:04 16,7 C 16,1 C 14,4 C 91 % 2 lf 1021,7 hPa 0,0 l/m 0 min 0 min 5 W/m 4,2 km/h (1 Bft) 97,87 %
05.08.2016 23:06 16,6 C 16,1 C 14,4 C 92 % 2 lf 1021,7 hPa 0,0 l/m 0 min 0 min 5 W/m 6,3 km/h (2 Bft) 93,48 %
05.08.2016 23:08 16,6 C 15,6 C 14,4 C 92 % 2 lf 1021,7 hPa 0,0 l/m 0 min 0 min 5 W/m 6,3 km/h (2 Bft) 95,74 %
05.08.2016 23:10 16,6 C 15,6 C 14,4 C 92 % 2 lf 1021,8 hPa 0,0 l/m 0 min 0 min 5 W/m 6,3 km/h (2 Bft) 95,74 %
05.08.2016 23:12 16,6 C 15,6 C 14,4 C 92 % 2 lf 1021,8 hPa 0,0 l/m 0 min 0 min 5 W/m 4,2 km/h (1 Bft) 97,87 %
05.08.2016 23:14 16,6 C 15,6 C 13,9 C 92 % 2 lf 1021,8 hPa 0,0 l/m 0 min 0 min 5 W/m 8,4 km/h (2 Bft) 95,74 %
05.08.2016 23:16 16,5 C 15,6 C 13,9 C 92 % 2 lf 1021,9 hPa 0,0 l/m 0 min 0 min 5 W/m 6,3 km/h (2 Bft) 97,87 %
05.08.2016 23:18 16,5 C 15,6 C 13,9 C 92 % 2 lf 1021,9 hPa 0,0 l/m 0 min 0 min 5 W/m 8,4 km/h (2 Bft) 95,65 %
05.08.2016 23:20 16,4 C 15,6 C 13,9 C 92 % 2 lf 1021,9 hPa 0,0 l/m 0 min 0 min 5 W/m 8,4 km/h (2 Bft) 95,74 %
05.08.2016 23:22 16,4 C 15,6 C 13,9 C 92 % 2 lf 1021,9 hPa 0,0 l/m 0 min 0 min 5 W/m 8,4 km/h (2 Bft) 100,00 %
05.08.2016 23:24 16,3 C 15,6 C 13,9 C 91 % 2 lf 1022,0 hPa 0,0 l/m 0 min 0 min 5 W/m 8,4 km/h (2 Bft) 100,00 %
05.08.2016 23:26 16,3 C 15,6 C 13,9 C 91 % 2 lf 1022,0 hPa 0,0 l/m 0 min 0 min 5 W/m 10,5 km/h (2 Bft) 95,74 %
05.08.2016 23:28 16,3 C 15,6 C 13,9 C 91 % 1 lf 1021,9 hPa 0,0 l/m 0 min 0 min 5 W/m 10,5 km/h (2 Bft) 97,87 %
05.08.2016 23:30 16,2 C 15,6 C 13,9 C 91 % 1 lf 1021,9 hPa 0,0 l/m 0 min 0 min 5 W/m 8,4 km/h (2 Bft) 100,00 %
05.08.2016 23:32 16,2 C 15,6 C 13,9 C 91 % 1 lf 1021,9 hPa 0,0 l/m 0 min 0 min 5 W/m 6,3 km/h (2 Bft) 100,00 %
05.08.2016 23:34 16,2 C 15,6 C 13,9 C 91 % 1 lf 1022,0 hPa 0,0 l/m 0 min 0 min 5 W/m 6,3 km/h (2 Bft) 97,87 %
05.08.2016 23:36 16,1 C 15,6 C 13,9 C 91 % 1 lf 1021,9 hPa 0,0 l/m 0 min 0 min 5 W/m 6,3 km/h (2 Bft) 100,00 %
05.08.2016 23:38 16,1 C 15,6 C 13,3 C 91 % 1 lf 1021,9 hPa 0,0 l/m 0 min 0 min 5 W/m 4,2 km/h (1 Bft) 97,87 %
05.08.2016 23:40 16,1 C 15,6 C 13,9 C 91 % 1 lf 1022,0 hPa 0,0 l/m 0 min 0 min 5 W/m 12,6 km/h (3 Bft) 97,83 %
05.08.2016 23:42 16,0 C 15,0 C 13,9 C 91 % 1 lf 1022,0 hPa 0,0 l/m 0 min 0 min 5 W/m 8,4 km/h (2 Bft) 100,00 %
05.08.2016 23:44 15,9 C 15,0 C 13,9 C 91 % 1 lf 1022,1 hPa 0,0 l/m 0 min 0 min 5 W/m 8,4 km/h (2 Bft) 97,87 %
05.08.2016 23:46 15,9 C 15,0 C 13,9 C 91 % 1 lf 1022,0 hPa 0,0 l/m 0 min 0 min 5 W/m 8,4 km/h (2 Bft) 95,74 %
05.08.2016 23:48 15,9 C 15,0 C 13,9 C 90 % 1 lf 1022,0 hPa 0,0 l/m 0 min 0 min 5 W/m 6,3 km/h (2 Bft) 97,87 %
05.08.2016 23:50 15,8 C 15,0 C 13,9 C 90 % 1 lf 1022,0 hPa 0,0 l/m 0 min 0 min 5 W/m 12,6 km/h (3 Bft) 97,87 %
05.08.2016 23:52 15,8 C 15,0 C 13,3 C 90 % 1 lf 1022,1 hPa 0,0 l/m 0 min 0 min 5 W/m 8,4 km/h (2 Bft) 93,48 %
05.08.2016 23:54 15,8 C 15,0 C 13,3 C 90 % 1 lf 1022,1 hPa 0,0 l/m 0 min 0 min 5 W/m 6,3 km/h (2 Bft) 100,00 %
05.08.2016 23:56 15,7 C 15,0 C 13,3 C 90 % 1 lf 1022,1 hPa 0,0 l/m 0 min 0 min 5 W/m 6,3 km/h (2 Bft) 97,87 %
05.08.2016 23:58 15,7 C 15,0 C 13,3 C 90 % 1 lf 1022,0 hPa 0,0 l/m 0 min 0 min 5 W/m 6,3 km/h (2 Bft) 100,00 %
_ Min-Zeit 05:40 05:24 05:20 14:06 10:00 00:06 - - - - 14:50 06:44
Minimum _ 13,4 C 12,8 C 11,7 C 66 % 0 lf 1012,4 hPa - - - - 0,0 km/h (0 Bft) 87,23 %
_ Max-Zeit 14:00 13:50 15:44 07:02 13:46 23:44 16:56 11:12 14:10 13:48 14:06 01:44
Maximum _ 23,1 C 32,2 C 27,2 C 95 % 15 lf 1022,1 hPa 0,6 l/m 2 min 2 min 1097 W/m 41,8 km/h
W-NW (6 Bft)
100,00 %
Durchschnitt _ 17,2 C 18,0 C 16,2 C 89 % 2 lf 1017,0 hPa #1,6 l/m #4:02 h #42 min. 145 W/m 11,5 km/h (2 Bft) 96,14 %
© 2016 W. Hausmann